Wetterdaten: Freitag, 07.04.2017
Datum Zeit Temp. Aussen Temp. o. S. +5cm Feuchte Auss BlattFeu 1 Luftdruck Regen Sonnenschein Regendauer Solar Windben Empfang
07.04.2017 00:00 6,7 C 6,7 C 5,0 C 85 % 0 lf 1027,1 hPa 0,0 l/m 0 min 0 min 0 W/m 4,2 km/h (1 Bft) 93,62 %
07.04.2017 00:02 6,7 C 6,7 C 5,0 C 85 % 0 lf 1027,0 hPa 0,0 l/m 0 min 0 min 0 W/m 6,3 km/h (2 Bft) 90,24 %
07.04.2017 00:04 6,7 C 6,7 C 5,0 C 85 % 0 lf 1027,0 hPa 0,0 l/m 0 min 0 min 0 W/m 6,3 km/h (2 Bft) 93,48 %
07.04.2017 00:06 6,7 C 6,7 C 5,0 C 85 % 0 lf 1027,0 hPa 0,0 l/m 0 min 0 min 0 W/m 8,4 km/h (2 Bft) 91,49 %
07.04.2017 00:10 6,7 C 6,7 C 4,4 C 86 % 0 lf 1027,0 hPa 0,0 l/m 0 min 0 min 0 W/m 6,3 km/h (2 Bft) 91,49 %
07.04.2017 00:12 6,7 C 6,1 C 4,4 C 86 % 0 lf 1027,0 hPa 0,0 l/m 0 min 0 min 0 W/m 6,3 km/h (2 Bft) 93,62 %
07.04.2017 00:14 6,7 C 6,1 C 4,4 C 86 % 0 lf 1026,9 hPa 0,0 l/m 0 min 0 min 0 W/m 6,3 km/h (2 Bft) 91,49 %
07.04.2017 00:16 6,7 C 6,1 C 4,4 C 86 % 0 lf 1026,9 hPa 0,0 l/m 0 min 0 min 0 W/m 6,3 km/h (2 Bft) 89,13 %
07.04.2017 00:18 6,7 C 6,1 C 4,4 C 85 % 0 lf 1026,8 hPa 0,0 l/m 0 min 0 min 0 W/m 6,3 km/h (2 Bft) 89,36 %
07.04.2017 00:20 6,7 C 6,1 C 3,9 C 85 % 0 lf 1027,0 hPa 0,0 l/m 0 min 0 min 0 W/m 6,3 km/h (2 Bft) 89,36 %
07.04.2017 00:22 6,7 C 6,1 C 3,9 C 85 % 0 lf 1026,9 hPa 0,0 l/m 0 min 0 min 0 W/m 4,2 km/h (1 Bft) 91,49 %
07.04.2017 00:24 6,7 C 6,1 C 3,9 C 85 % 0 lf 1026,9 hPa 0,0 l/m 0 min 0 min 0 W/m 6,3 km/h (2 Bft) 93,62 %
07.04.2017 00:26 6,6 C 5,6 C 3,9 C 85 % 0 lf 1026,8 hPa 0,0 l/m 0 min 0 min 0 W/m 8,4 km/h (2 Bft) 91,49 %
07.04.2017 00:28 6,6 C 5,6 C 3,9 C 85 % 0 lf 1026,8 hPa 0,0 l/m 0 min 0 min 0 W/m 2,1 km/h (1 Bft) 91,30 %
07.04.2017 00:30 6,6 C 5,6 C 3,3 C 85 % 0 lf 1026,9 hPa 0,0 l/m 0 min 0 min 0 W/m 4,2 km/h (1 Bft) 89,36 %
07.04.2017 00:33 6,6 C 5,6 C 3,3 C 85 % 0 lf 1026,9 hPa 0,0 l/m 0 min 0 min 0 W/m 4,2 km/h (1 Bft) 94,29 %
07.04.2017 00:34 6,6 C 5,6 C 3,3 C 85 % 0 lf 1026,9 hPa 0,0 l/m 0 min 0 min 0 W/m 2,1 km/h (1 Bft) 83,33 %
07.04.2017 00:36 6,6 C 5,0 C 3,3 C 85 % 0 lf 1026,8 hPa 0,0 l/m 0 min 0 min 0 W/m 2,1 km/h (1 Bft) 91,49 %
07.04.2017 00:38 6,5 C 5,0 C 3,3 C 85 % 0 lf 1026,7 hPa 0,0 l/m 0 min 0 min 0 W/m 0,0 km/h (0 Bft) 93,62 %
07.04.2017 00:40 6,5 C 5,0 C 3,3 C 85 % 0 lf 1026,7 hPa 0,0 l/m 0 min 0 min 0 W/m 0,0 km/h (0 Bft) 95,65 %
07.04.2017 00:42 6,5 C 5,0 C 3,3 C 85 % 0 lf 1026,7 hPa 0,0 l/m 0 min 0 min 0 W/m 0,0 km/h (0 Bft) 93,62 %
07.04.2017 00:44 6,4 C 5,0 C 3,3 C 85 % 0 lf 1026,7 hPa 0,0 l/m 0 min 0 min 0 W/m 0,0 km/h (0 Bft) 95,74 %
07.04.2017 00:46 6,4 C 5,0 C 3,3 C 85 % 0 lf 1026,8 hPa 0,0 l/m 0 min 0 min 0 W/m 0,0 km/h (0 Bft) 93,62 %
07.04.2017 00:48 6,4 C 5,0 C 3,3 C 85 % 0 lf 1026,8 hPa 0,0 l/m 0 min 0 min 0 W/m 0,0 km/h (0 Bft) 100,00 %
07.04.2017 00:50 6,4 C 5,0 C 3,3 C 85 % 0 lf 1026,6 hPa 0,0 l/m 0 min 0 min 0 W/m 0,0 km/h (0 Bft) 97,87 %
07.04.2017 00:52 6,4 C 5,0 C 3,3 C 85 % 0 lf 1026,6 hPa 0,0 l/m 0 min 0 min 5 W/m 0,0 km/h (0 Bft) 92,68 %
07.04.2017 00:54 6,3 C 5,0 C 2,8 C 85 % 0 lf 1026,7 hPa 0,0 l/m 0 min 0 min 0 W/m 0,0 km/h (0 Bft) 97,87 %
07.04.2017 00:56 6,3 C 5,0 C 3,3 C 85 % 0 lf 1026,7 hPa 0,0 l/m 0 min 0 min 0 W/m 0,0 km/h (0 Bft) 97,87 %
07.04.2017 00:58 6,3 C 5,0 C 2,8 C 85 % 0 lf 1026,7 hPa 0,0 l/m 0 min 0 min 5 W/m 0,0 km/h (0 Bft) 97,87 %
07.04.2017 01:00 6,2 C 5,0 C 2,8 C 85 % 0 lf 1026,7 hPa 0,0 l/m 0 min 0 min 5 W/m 0,0 km/h (0 Bft) 97,87 %
07.04.2017 01:02 6,2 C 5,0 C 2,8 C 84 % 0 lf 1026,6 hPa 0,0 l/m 0 min 0 min 5 W/m 0,0 km/h (0 Bft) 95,65 %
07.04.2017 01:04 6,2 C 5,0 C 3,3 C 84 % 0 lf 1026,5 hPa 0,0 l/m 0 min 0 min 5 W/m 0,0 km/h (0 Bft) 97,87 %
07.04.2017 01:06 6,2 C 5,0 C 2,8 C 84 % 0 lf 1026,5 hPa 0,0 l/m 0 min 0 min 1 W/m 0,0 km/h (0 Bft) 97,87 %
07.04.2017 01:08 6,2 C 5,0 C 2,8 C 84 % 0 lf 1026,5 hPa 0,0 l/m 0 min 0 min 0 W/m 0,0 km/h (0 Bft) 95,74 %
07.04.2017 01:10 6,1 C 5,0 C 2,8 C 84 % 0 lf 1026,5 hPa 0,0 l/m 0 min 0 min 0 W/m 4,2 km/h (1 Bft) 91,49 %
07.04.2017 01:12 6,1 C 5,0 C 2,8 C 84 % 0 lf 1026,4 hPa 0,0 l/m 0 min 0 min 0 W/m 4,2 km/h (1 Bft) 97,87 %
07.04.2017 01:14 6,1 C 5,0 C 2,8 C 84 % 0 lf 1026,4 hPa 0,0 l/m 0 min 0 min 0 W/m 4,2 km/h (1 Bft) 97,83 %
07.04.2017 01:16 6,1 C 5,0 C 2,8 C 85 % 0 lf 1026,4 hPa 0,0 l/m 0 min 0 min 0 W/m 4,2 km/h (1 Bft) 91,49 %
07.04.2017 01:18 6,0 C 5,0 C 3,3 C 85 % 0 lf 1026,4 hPa 0,0 l/m 0 min 0 min 0 W/m 4,2 km/h (1 Bft) 91,49 %
07.04.2017 01:20 6,0 C 5,0 C 3,3 C 85 % 0 lf 1026,4 hPa 0,0 l/m 0 min 0 min 0 W/m 4,2 km/h (1 Bft) 100,00 %
07.04.2017 01:22 5,9 C 5,0 C 3,3 C 85 % 0 lf 1026,4 hPa 0,0 l/m 0 min 0 min 0 W/m 4,2 km/h (1 Bft) 97,87 %
07.04.2017 01:24 5,9 C 5,0 C 3,3 C 85 % 0 lf 1026,4 hPa 0,0 l/m 0 min 0 min 0 W/m 4,2 km/h (1 Bft) 95,92 %
07.04.2017 01:26 5,9 C 5,0 C 3,3 C 85 % 0 lf 1026,4 hPa 0,0 l/m 0 min 0 min 0 W/m 6,3 km/h (2 Bft) 91,49 %
07.04.2017 01:28 5,9 C 5,0 C 3,3 C 85 % 0 lf 1026,4 hPa 0,0 l/m 0 min 0 min 0 W/m 6,3 km/h (2 Bft) 97,87 %
07.04.2017 01:30 5,8 C 5,0 C 3,3 C 85 % 0 lf 1026,3 hPa 0,0 l/m 0 min 0 min 0 W/m 4,2 km/h (1 Bft) 97,87 %
07.04.2017 01:32 5,8 C 5,0 C 3,3 C 85 % 0 lf 1026,4 hPa 0,0 l/m 0 min 0 min 0 W/m 4,2 km/h (1 Bft) 100,00 %
07.04.2017 01:34 5,8 C 5,0 C 3,3 C 85 % 0 lf 1026,3 hPa 0,0 l/m 0 min 0 min 0 W/m 4,2 km/h (1 Bft) 100,00 %
07.04.2017 01:36 5,8 C 5,0 C 3,9 C 85 % 0 lf 1026,3 hPa 0,0 l/m 0 min 0 min 0 W/m 4,2 km/h (1 Bft) 97,87 %
07.04.2017 01:38 5,7 C 5,0 C 3,9 C 85 % 0 lf 1026,3 hPa 0,0 l/m 0 min 0 min 0 W/m 4,2 km/h (1 Bft) 100,00 %
07.04.2017 01:40 5,7 C 5,0 C 3,9 C 85 % 0 lf 1026,3 hPa 0,0 l/m 0 min 0 min 0 W/m 4,2 km/h (1 Bft) 97,87 %
07.04.2017 01:42 5,7 C 5,6 C 3,9 C 85 % 0 lf 1026,3 hPa 0,0 l/m 0 min 0 min 0 W/m 2,1 km/h (1 Bft) 100,00 %
07.04.2017 01:44 5,7 C 5,6 C 3,9 C 85 % 0 lf 1026,3 hPa 0,0 l/m 0 min 0 min 0 W/m 4,2 km/h (1 Bft) 95,74 %
07.04.2017 01:46 5,7 C 5,6 C 3,9 C 86 % 0 lf 1026,3 hPa 0,0 l/m 0 min 0 min 0 W/m 4,2 km/h (1 Bft) 97,87 %
07.04.2017 01:48 5,7 C 5,6 C 3,9 C 85 % 0 lf 1026,2 hPa 0,0 l/m 0 min 0 min 0 W/m 4,2 km/h (1 Bft) 97,87 %
07.04.2017 01:50 5,7 C 5,6 C 3,9 C 86 % 0 lf 1026,2 hPa 0,0 l/m 0 min 0 min 0 W/m 4,2 km/h (1 Bft) 100,00 %
07.04.2017 01:52 5,6 C 5,6 C 3,9 C 86 % 0 lf 1026,2 hPa 0,0 l/m 0 min 0 min 0 W/m 4,2 km/h (1 Bft) 100,00 %
07.04.2017 01:54 5,6 C 5,6 C 3,9 C 86 % 0 lf 1026,2 hPa 0,0 l/m 0 min 0 min 0 W/m 4,2 km/h (1 Bft) 100,00 %
07.04.2017 01:56 5,6 C 5,6 C 3,9 C 86 % 0 lf 1026,2 hPa 0,0 l/m 0 min 0 min 0 W/m 2,1 km/h (1 Bft) 97,87 %
07.04.2017 01:58 5,6 C 5,6 C 3,9 C 86 % 0 lf 1026,1 hPa 0,0 l/m 0 min 0 min 0 W/m 4,2 km/h (1 Bft) 100,00 %
07.04.2017 02:00 5,6 C 5,6 C 3,9 C 86 % 0 lf 1026,1 hPa 0,0 l/m 0 min 0 min 0 W/m 4,2 km/h (1 Bft) 95,65 %
07.04.2017 02:02 5,6 C 5,6 C 3,9 C 86 % 0 lf 1026,1 hPa 0,0 l/m 0 min 0 min 0 W/m 4,2 km/h (1 Bft) 97,87 %
07.04.2017 02:04 5,6 C 5,0 C 3,9 C 87 % 0 lf 1026,0 hPa 0,0 l/m 0 min 0 min 0 W/m 4,2 km/h (1 Bft) 95,74 %
07.04.2017 02:06 5,6 C 5,0 C 3,9 C 87 % 0 lf 1026,0 hPa 0,0 l/m 0 min 0 min 0 W/m 6,3 km/h (2 Bft) 95,74 %
07.04.2017 02:08 5,6 C 5,6 C 3,9 C 87 % 0 lf 1026,0 hPa 0,0 l/m 0 min 0 min 0 W/m 2,1 km/h (1 Bft) 95,74 %
07.04.2017 02:10 5,6 C 5,6 C 3,9 C 87 % 0 lf 1026,0 hPa 0,0 l/m 0 min 0 min 0 W/m 4,2 km/h (1 Bft) 95,74 %
07.04.2017 02:12 5,6 C 5,6 C 3,9 C 87 % 0 lf 1026,0 hPa 0,0 l/m 0 min 0 min 0 W/m 4,2 km/h (1 Bft) 93,48 %
07.04.2017 02:14 5,5 C 5,6 C 3,9 C 87 % 0 lf 1025,9 hPa 0,0 l/m 0 min 0 min 0 W/m 6,3 km/h (2 Bft) 97,87 %
07.04.2017 02:16 5,5 C 5,6 C 3,9 C 87 % 0 lf 1025,9 hPa 0,0 l/m 0 min 0 min 0 W/m 6,3 km/h (2 Bft) 95,74 %
07.04.2017 02:18 5,5 C 5,6 C 3,9 C 87 % 0 lf 1025,9 hPa 0,0 l/m 0 min 0 min 0 W/m 6,3 km/h (2 Bft) 97,87 %
07.04.2017 02:20 5,5 C 5,6 C 3,9 C 87 % 0 lf 1025,8 hPa 0,0 l/m 0 min 0 min 0 W/m 6,3 km/h (2 Bft) 97,87 %
07.04.2017 02:22 5,5 C 5,6 C 3,9 C 88 % 0 lf 1025,8 hPa 0,0 l/m 0 min 0 min 0 W/m 6,3 km/h (2 Bft) 97,87 %
07.04.2017 02:24 5,5 C 5,6 C 3,9 C 88 % 0 lf 1025,8 hPa 0,0 l/m 0 min 0 min 0 W/m 6,3 km/h (2 Bft) 97,83 %
07.04.2017 02:26 5,5 C 5,0 C 3,9 C 88 % 0 lf 1025,7 hPa 0,0 l/m 0 min 0 min 0 W/m 2,1 km/h (1 Bft) 93,62 %
07.04.2017 02:28 5,4 C 5,0 C 3,9 C 88 % 0 lf 1025,7 hPa 0,0 l/m 0 min 0 min 0 W/m 4,2 km/h (1 Bft) 100,00 %
07.04.2017 02:30 5,4 C 5,0 C 3,9 C 88 % 0 lf 1025,7 hPa 0,0 l/m 0 min 0 min 0 W/m 4,2 km/h (1 Bft) 100,00 %
07.04.2017 02:32 5,4 C 5,0 C 3,9 C 88 % 0 lf 1025,7 hPa 0,0 l/m 0 min 0 min 0 W/m 6,3 km/h (2 Bft) 100,00 %
07.04.2017 02:34 5,4 C 5,0 C 3,9 C 88 % 0 lf 1025,7 hPa 0,0 l/m 0 min 0 min 0 W/m 6,3 km/h (2 Bft) 100,00 %
07.04.2017 02:36 5,4 C 5,0 C 3,3 C 88 % 0 lf 1025,6 hPa 0,0 l/m 0 min 0 min 0 W/m 6,3 km/h (2 Bft) 95,65 %
07.04.2017 02:38 5,4 C 5,0 C 3,3 C 88 % 0 lf 1025,6 hPa 0,0 l/m 0 min 0 min 0 W/m 6,3 km/h (2 Bft) 95,74 %
07.04.2017 02:40 5,4 C 5,0 C 3,9 C 88 % 0 lf 1025,6 hPa 0,0 l/m 0 min 0 min 0 W/m 8,4 km/h (2 Bft) 97,87 %
07.04.2017 02:42 5,4 C 5,0 C 3,9 C 88 % 0 lf 1025,6 hPa 0,0 l/m 0 min 0 min 0 W/m 8,4 km/h (2 Bft) 96,00 %
07.04.2017 02:44 5,4 C 5,0 C 3,9 C 88 % 0 lf 1025,6 hPa 0,0 l/m 0 min 0 min 0 W/m 8,4 km/h (2 Bft) 95,92 %
07.04.2017 02:46 5,4 C 5,0 C 3,9 C 88 % 0 lf 1025,6 hPa 0,0 l/m 0 min 0 min 0 W/m 8,4 km/h (2 Bft) 93,62 %
07.04.2017 02:48 5,4 C 5,0 C 3,9 C 88 % 0 lf 1025,6 hPa 0,0 l/m 0 min 0 min 0 W/m 8,4 km/h (2 Bft) 93,48 %
07.04.2017 02:50 5,4 C 5,0 C 3,9 C 88 % 0 lf 1025,4 hPa 0,0 l/m 0 min 0 min 0 W/m 8,4 km/h (2 Bft) 93,62 %
07.04.2017 02:52 5,4 C 5,0 C 3,9 C 89 % 0 lf 1025,4 hPa 0,0 l/m 0 min 0 min 0 W/m 8,4 km/h (2 Bft) 95,74 %
07.04.2017 02:54 5,4 C 5,0 C 3,9 C 89 % 0 lf 1025,4 hPa 0,0 l/m 0 min 0 min 0 W/m 8,4 km/h (2 Bft) 95,74 %
07.04.2017 02:56 5,4 C 5,0 C 3,3 C 89 % 0 lf 1025,4 hPa 0,0 l/m 0 min 0 min 0 W/m 8,4 km/h (2 Bft) 93,62 %
07.04.2017 02:58 5,4 C 5,0 C 3,3 C 89 % 0 lf 1025,4 hPa 0,0 l/m 0 min 0 min 0 W/m 8,4 km/h (2 Bft) 95,74 %
07.04.2017 03:00 5,4 C 5,0 C 3,3 C 89 % 0 lf 1025,4 hPa 0,0 l/m 0 min 0 min 0 W/m 6,3 km/h (2 Bft) 95,65 %
07.04.2017 03:02 5,3 C 5,0 C 3,3 C 89 % 0 lf 1025,4 hPa 0,0 l/m 0 min 0 min 0 W/m 8,4 km/h (2 Bft) 91,49 %
07.04.2017 03:04 5,3 C 5,0 C 3,3 C 89 % 0 lf 1025,4 hPa 0,0 l/m 0 min 0 min 0 W/m 6,3 km/h (2 Bft) 95,74 %
07.04.2017 03:06 5,3 C 4,4 C 3,3 C 89 % 0 lf 1025,3 hPa 0,0 l/m 0 min 0 min 0 W/m 6,3 km/h (2 Bft) 93,62 %
07.04.2017 03:08 5,3 C 4,4 C 3,3 C 89 % 0 lf 1025,3 hPa 0,0 l/m 0 min 0 min 0 W/m 6,3 km/h (2 Bft) 92,86 %
07.04.2017 03:10 5,3 C 4,4 C 2,8 C 89 % 0 lf 1025,3 hPa 0,0 l/m 0 min 0 min 0 W/m 2,1 km/h (1 Bft) 93,48 %
07.04.2017 03:12 5,3 C 4,4 C 2,8 C 89 % 0 lf 1025,3 hPa 0,0 l/m 0 min 0 min 0 W/m 2,1 km/h (1 Bft) 95,74 %
07.04.2017 03:14 5,3 C 3,9 C 2,8 C 89 % 0 lf 1025,4 hPa 0,0 l/m 0 min 0 min 0 W/m 4,2 km/h (1 Bft) 95,74 %
07.04.2017 03:16 5,3 C 3,9 C 2,8 C 89 % 0 lf 1025,3 hPa 0,0 l/m 0 min 0 min 0 W/m 4,2 km/h (1 Bft) 93,62 %
07.04.2017 03:18 5,2 C 3,9 C 2,8 C 89 % 0 lf 1025,3 hPa 0,0 l/m 0 min 0 min 0 W/m 6,3 km/h (2 Bft) 93,62 %
07.04.2017 03:20 5,2 C 3,9 C 2,8 C 89 % 0 lf 1025,2 hPa 0,0 l/m 0 min 0 min 0 W/m 2,1 km/h (1 Bft) 97,87 %
07.04.2017 03:22 5,2 C 3,9 C 2,8 C 89 % 0 lf 1025,2 hPa 0,0 l/m 0 min 0 min 0 W/m 0,0 km/h (0 Bft) 97,83 %
07.04.2017 03:24 5,2 C 4,4 C 2,8 C 89 % 0 lf 1025,3 hPa 0,0 l/m 0 min 0 min 0 W/m 2,1 km/h (1 Bft) 96,00 %
07.04.2017 03:26 5,2 C 4,4 C 2,8 C 89 % 0 lf 1025,3 hPa 0,0 l/m 0 min 0 min 0 W/m 0,0 km/h (0 Bft) 97,87 %
07.04.2017 03:28 5,2 C 4,4 C 2,8 C 89 % 0 lf 1025,3 hPa 0,0 l/m 0 min 0 min 0 W/m 2,1 km/h (1 Bft) 95,74 %
07.04.2017 03:30 5,2 C 4,4 C 2,8 C 89 % 0 lf 1025,3 hPa 0,0 l/m 0 min 0 min 0 W/m 2,1 km/h (1 Bft) 97,87 %
07.04.2017 03:32 5,1 C 4,4 C 2,8 C 89 % 0 lf 1025,3 hPa 0,0 l/m 0 min 0 min 0 W/m 2,1 km/h (1 Bft) 91,30 %
07.04.2017 03:34 5,1 C 4,4 C 3,3 C 89 % 0 lf 1025,2 hPa 0,0 l/m 0 min 0 min 0 W/m 0,0 km/h (0 Bft) 97,87 %
07.04.2017 03:36 5,1 C 4,4 C 3,3 C 89 % 0 lf 1025,2 hPa 0,0 l/m 0 min 0 min 0 W/m 0,0 km/h (0 Bft) 95,74 %
07.04.2017 03:38 5,1 C 4,4 C 3,3 C 89 % 0 lf 1025,2 hPa 0,0 l/m 0 min 0 min 0 W/m 6,3 km/h (2 Bft) 100,00 %
07.04.2017 03:40 5,1 C 4,4 C 3,3 C 89 % 0 lf 1025,2 hPa 0,0 l/m 0 min 0 min 0 W/m 4,2 km/h (1 Bft) 97,87 %
07.04.2017 03:42 5,1 C 4,4 C 3,3 C 89 % 0 lf 1025,2 hPa 0,0 l/m 0 min 0 min 0 W/m 6,3 km/h (2 Bft) 95,74 %
07.04.2017 03:44 5,0 C 4,4 C 3,3 C 89 % 0 lf 1025,2 hPa 0,0 l/m 0 min 0 min 0 W/m 6,3 km/h (2 Bft) 100,00 %
07.04.2017 03:46 5,0 C 4,4 C 3,3 C 89 % 0 lf 1025,2 hPa 0,0 l/m 0 min 0 min 0 W/m 6,3 km/h (2 Bft) 97,87 %
07.04.2017 03:48 5,0 C 4,4 C 3,3 C 89 % 0 lf 1025,2 hPa 0,0 l/m 0 min 0 min 0 W/m 6,3 km/h (2 Bft) 91,49 %
07.04.2017 03:50 5,0 C 5,0 C 3,9 C 89 % 0 lf 1025,2 hPa 0,0 l/m 0 min 0 min 0 W/m 6,3 km/h (2 Bft) 97,87 %
07.04.2017 03:52 5,0 C 5,0 C 3,9 C 89 % 0 lf 1025,2 hPa 0,0 l/m 0 min 0 min 0 W/m 6,3 km/h (2 Bft) 95,92 %
07.04.2017 03:54 4,9 C 5,0 C 3,9 C 89 % 0 lf 1025,1 hPa 0,0 l/m 0 min 0 min 0 W/m 4,2 km/h (1 Bft) 97,87 %
07.04.2017 03:56 4,9 C 5,0 C 3,9 C 89 % 0 lf 1025,2 hPa 0,0 l/m 0 min 0 min 0 W/m 4,2 km/h (1 Bft) 93,62 %
07.04.2017 03:58 4,9 C 5,0 C 3,9 C 89 % 0 lf 1025,1 hPa 0,0 l/m 0 min 0 min 0 W/m 6,3 km/h (2 Bft) 97,83 %
07.04.2017 04:00 4,9 C 5,0 C 3,9 C 89 % 0 lf 1025,2 hPa 0,0 l/m 0 min 0 min 0 W/m 6,3 km/h (2 Bft) 93,62 %
07.04.2017 04:05 4,9 C 5,0 C 3,9 C 89 % 0 lf 1025,1 hPa 0,0 l/m 0 min 0 min 0 W/m 8,4 km/h (2 Bft) 95,24 %
07.04.2017 04:06 4,9 C 5,0 C 3,9 C 89 % 0 lf 1025,1 hPa 0,0 l/m 0 min 0 min 0 W/m 6,3 km/h (2 Bft) 87,50 %
07.04.2017 04:08 4,9 C 5,0 C 3,9 C 89 % 0 lf 1025,2 hPa 0,0 l/m 0 min 0 min 0 W/m 8,4 km/h (2 Bft) 97,87 %
07.04.2017 04:10 5,0 C 5,0 C 3,9 C 89 % 0 lf 1025,2 hPa 0,0 l/m 0 min 0 min 0 W/m 2,1 km/h (1 Bft) 97,83 %
07.04.2017 04:12 5,0 C 5,0 C 3,9 C 90 % 0 lf 1025,2 hPa 0,0 l/m 0 min 0 min 0 W/m 4,2 km/h (1 Bft) 93,62 %
07.04.2017 04:14 5,0 C 5,0 C 3,9 C 90 % 0 lf 1025,2 hPa 0,0 l/m 0 min 0 min 0 W/m 4,2 km/h (1 Bft) 97,87 %
07.04.2017 04:16 5,0 C 5,0 C 3,9 C 90 % 0 lf 1025,2 hPa 0,0 l/m 0 min 0 min 0 W/m 4,2 km/h (1 Bft) 93,62 %
07.04.2017 04:18 5,0 C 5,0 C 3,9 C 90 % 0 lf 1025,2 hPa 0,0 l/m 0 min 0 min 0 W/m 6,3 km/h (2 Bft) 97,87 %
07.04.2017 04:20 5,0 C 5,0 C 3,9 C 90 % 0 lf 1025,2 hPa 0,0 l/m 0 min 0 min 0 W/m 8,4 km/h (2 Bft) 97,87 %
07.04.2017 04:22 5,0 C 5,0 C 3,9 C 90 % 0 lf 1025,1 hPa 0,0 l/m 0 min 0 min 0 W/m 6,3 km/h (2 Bft) 100,00 %
07.04.2017 04:24 5,0 C 5,6 C 4,4 C 90 % 0 lf 1025,2 hPa 0,0 l/m 0 min 0 min 0 W/m 6,3 km/h (2 Bft) 100,00 %
07.04.2017 04:26 5,0 C 5,6 C 4,4 C 90 % 0 lf 1025,2 hPa 0,0 l/m 0 min 0 min 0 W/m 4,2 km/h (1 Bft) 100,00 %
07.04.2017 04:28 5,1 C 5,6 C 4,4 C 90 % 0 lf 1025,1 hPa 0,0 l/m 0 min 0 min 0 W/m 6,3 km/h (2 Bft) 95,74 %
07.04.2017 04:30 5,1 C 5,6 C 4,4 C 90 % 0 lf 1025,1 hPa 0,0 l/m 0 min 0 min 0 W/m 6,3 km/h (2 Bft) 100,00 %
07.04.2017 04:32 5,1 C 5,6 C 4,4 C 90 % 0 lf 1025,2 hPa 0,0 l/m 0 min 0 min 0 W/m 6,3 km/h (2 Bft) 95,65 %
07.04.2017 04:34 5,1 C 5,6 C 4,4 C 91 % 0 lf 1025,2 hPa 0,0 l/m 0 min 0 min 0 W/m 4,2 km/h (1 Bft) 97,87 %
07.04.2017 04:36 5,1 C 5,6 C 4,4 C 91 % 0 lf 1025,2 hPa 0,0 l/m 0 min 0 min 0 W/m 4,2 km/h (1 Bft) 100,00 %
07.04.2017 04:38 5,1 C 5,6 C 4,4 C 91 % 0 lf 1025,1 hPa 0,0 l/m 0 min 0 min 0 W/m 6,3 km/h (2 Bft) 95,74 %
07.04.2017 04:40 5,1 C 5,6 C 4,4 C 91 % 0 lf 1025,1 hPa 0,0 l/m 0 min 0 min 0 W/m 4,2 km/h (1 Bft) 97,87 %
07.04.2017 04:42 5,1 C 5,6 C 4,4 C 91 % 0 lf 1025,1 hPa 0,0 l/m 0 min 0 min 0 W/m 2,1 km/h (1 Bft) 93,62 %
07.04.2017 04:44 5,1 C 5,6 C 4,4 C 91 % 0 lf 1025,1 hPa 0,0 l/m 0 min 0 min 0 W/m 4,2 km/h (1 Bft) 91,30 %
07.04.2017 04:46 5,1 C 5,6 C 4,4 C 91 % 0 lf 1025,1 hPa 0,0 l/m 0 min 0 min 0 W/m 4,2 km/h (1 Bft) 93,62 %
07.04.2017 04:48 5,1 C 5,6 C 4,4 C 91 % 0 lf 1025,1 hPa 0,0 l/m 0 min 0 min 0 W/m 6,3 km/h (2 Bft) 97,87 %
07.04.2017 04:50 5,1 C 5,6 C 4,4 C 91 % 0 lf 1025,1 hPa 0,0 l/m 0 min 0 min 0 W/m 8,4 km/h (2 Bft) 97,87 %
07.04.2017 04:52 5,2 C 5,6 C 4,4 C 91 % 0 lf 1025,0 hPa 0,0 l/m 0 min 0 min 0 W/m 8,4 km/h (2 Bft) 95,74 %
07.04.2017 04:54 5,2 C 5,6 C 4,4 C 91 % 0 lf 1025,0 hPa 0,0 l/m 0 min 0 min 0 W/m 6,3 km/h (2 Bft) 95,74 %
07.04.2017 04:56 5,2 C 5,6 C 4,4 C 91 % 0 lf 1025,1 hPa 0,0 l/m 0 min 0 min 0 W/m 10,5 km/h (2 Bft) 95,65 %
07.04.2017 04:58 5,2 C 5,6 C 4,4 C 91 % 0 lf 1025,1 hPa 0,0 l/m 0 min 0 min 0 W/m 6,3 km/h (2 Bft) 97,87 %
07.04.2017 05:00 5,2 C 5,6 C 4,4 C 91 % 0 lf 1025,1 hPa 0,0 l/m 0 min 0 min 0 W/m 10,5 km/h (2 Bft) 95,74 %
07.04.2017 05:02 5,2 C 5,6 C 4,4 C 91 % 0 lf 1025,1 hPa 0,0 l/m 0 min 0 min 0 W/m 6,3 km/h (2 Bft) 95,74 %
07.04.2017 05:04 5,2 C 5,6 C 4,4 C 91 % 0 lf 1025,1 hPa 0,0 l/m 0 min 0 min 0 W/m 10,5 km/h (2 Bft) 95,74 %
07.04.2017 05:06 5,3 C 5,6 C 4,4 C 91 % 0 lf 1025,1 hPa 0,0 l/m 0 min 0 min 0 W/m 10,5 km/h (2 Bft) 95,12 %
07.04.2017 05:08 5,3 C 5,6 C 4,4 C 91 % 0 lf 1025,1 hPa 0,0 l/m 0 min 0 min 0 W/m 10,5 km/h (2 Bft) 95,74 %
07.04.2017 05:10 5,3 C 5,6 C 4,4 C 91 % 0 lf 1025,0 hPa 0,0 l/m 0 min 0 min 0 W/m 10,5 km/h (2 Bft) 95,74 %
07.04.2017 05:12 5,3 C 5,6 C 4,4 C 91 % 0 lf 1025,0 hPa 0,0 l/m 0 min 0 min 0 W/m 8,4 km/h (2 Bft) 93,62 %
07.04.2017 05:14 5,3 C 5,6 C 4,4 C 91 % 0 lf 1025,0 hPa 0,0 l/m 0 min 0 min 0 W/m 8,4 km/h (2 Bft) 93,62 %
07.04.2017 05:16 5,3 C 5,6 C 4,4 C 91 % 0 lf 1025,0 hPa 0,0 l/m 0 min 0 min 0 W/m 8,4 km/h (2 Bft) 95,74 %
07.04.2017 05:18 5,3 C 5,6 C 4,4 C 91 % 0 lf 1025,0 hPa 0,0 l/m 0 min 0 min 0 W/m 8,4 km/h (2 Bft) 93,62 %
07.04.2017 05:20 5,3 C 5,6 C 4,4 C 91 % 0 lf 1025,0 hPa 0,0 l/m 0 min 0 min 0 W/m 8,4 km/h (2 Bft) 93,48 %
07.04.2017 05:22 5,4 C 5,6 C 4,4 C 91 % 0 lf 1025,0 hPa 0,0 l/m 0 min 0 min 0 W/m 8,4 km/h (2 Bft) 96,00 %
07.04.2017 05:24 5,4 C 5,6 C 4,4 C 91 % 0 lf 1025,0 hPa 0,0 l/m 0 min 0 min 0 W/m 10,5 km/h (2 Bft) 95,74 %
07.04.2017 05:26 5,4 C 5,6 C 4,4 C 91 % 0 lf 1024,9 hPa 0,0 l/m 0 min 0 min 0 W/m 8,4 km/h (2 Bft) 93,62 %
07.04.2017 05:28 5,4 C 5,6 C 4,4 C 91 % 0 lf 1024,9 hPa 0,0 l/m 0 min 0 min 0 W/m 8,4 km/h (2 Bft) 93,62 %
07.04.2017 05:30 5,4 C 5,6 C 4,4 C 91 % 0 lf 1024,9 hPa 0,0 l/m 0 min 0 min 0 W/m 8,4 km/h (2 Bft) 93,48 %
07.04.2017 05:32 5,4 C 5,6 C 4,4 C 91 % 0 lf 1024,9 hPa 0,0 l/m 0 min 0 min 0 W/m 10,5 km/h (2 Bft) 93,62 %
07.04.2017 05:34 5,4 C 5,6 C 4,4 C 91 % 0 lf 1024,9 hPa 0,0 l/m 0 min 0 min 0 W/m 10,5 km/h (2 Bft) 89,36 %
07.04.2017 05:36 5,4 C 6,1 C 4,4 C 91 % 0 lf 1024,9 hPa 0,0 l/m 0 min 0 min 0 W/m 4,2 km/h (1 Bft) 93,62 %
07.04.2017 05:38 5,4 C 5,6 C 4,4 C 91 % 0 lf 1024,9 hPa 0,0 l/m 0 min 0 min 0 W/m 4,2 km/h (1 Bft) 97,87 %
07.04.2017 05:40 5,5 C 6,1 C 5,0 C 91 % 0 lf 1024,9 hPa 0,0 l/m 0 min 0 min 0 W/m 10,5 km/h (2 Bft) 91,49 %
07.04.2017 05:42 5,5 C 6,1 C 5,0 C 91 % 0 lf 1024,9 hPa 0,0 l/m 0 min 0 min 0 W/m 8,4 km/h (2 Bft) 91,30 %
07.04.2017 05:44 5,5 C 6,1 C 5,0 C 91 % 0 lf 1024,9 hPa 0,0 l/m 0 min 0 min 0 W/m 8,4 km/h (2 Bft) 93,62 %
07.04.2017 05:46 5,5 C 6,1 C 5,0 C 91 % 0 lf 1024,9 hPa 0,0 l/m 0 min 0 min 0 W/m 8,4 km/h (2 Bft) 91,49 %
07.04.2017 05:48 5,5 C 6,1 C 5,0 C 91 % 0 lf 1024,8 hPa 0,0 l/m 0 min 0 min 0 W/m 12,6 km/h (3 Bft) 85,11 %
07.04.2017 05:50 5,5 C 6,1 C 5,0 C 91 % 0 lf 1024,9 hPa 0,0 l/m 0 min 0 min 0 W/m 8,4 km/h (2 Bft) 91,49 %
07.04.2017 05:52 5,6 C 6,1 C 5,0 C 91 % 0 lf 1024,8 hPa 0,0 l/m 0 min 0 min 0 W/m 8,4 km/h (2 Bft) 93,62 %
07.04.2017 05:54 5,6 C 6,1 C 5,0 C 91 % 0 lf 1024,9 hPa 0,0 l/m 0 min 0 min 0 W/m 8,4 km/h (2 Bft) 89,13 %
07.04.2017 05:56 5,6 C 6,1 C 5,0 C 91 % 0 lf 1024,8 hPa 0,0 l/m 0 min 0 min 0 W/m 8,4 km/h (2 Bft) 93,62 %
07.04.2017 05:58 5,6 C 6,1 C 5,0 C 91 % 0 lf 1024,8 hPa 0,0 l/m 0 min 0 min 0 W/m 8,4 km/h (2 Bft) 91,49 %
07.04.2017 06:00 5,6 C 6,1 C 5,0 C 91 % 0 lf 1024,8 hPa 0,0 l/m 0 min 0 min 0 W/m 4,2 km/h (1 Bft) 95,74 %
07.04.2017 06:02 5,6 C 6,1 C 5,0 C 91 % 0 lf 1024,8 hPa 0,0 l/m 0 min 0 min 0 W/m 10,5 km/h (2 Bft) 95,74 %
07.04.2017 06:04 5,6 C 6,1 C 5,0 C 91 % 0 lf 1024,9 hPa 0,0 l/m 0 min 0 min 0 W/m 6,3 km/h (2 Bft) 95,65 %
07.04.2017 06:06 5,6 C 6,1 C 5,0 C 91 % 0 lf 1024,9 hPa 0,0 l/m 0 min 0 min 0 W/m 8,4 km/h (2 Bft) 100,00 %
07.04.2017 06:08 5,6 C 6,1 C 5,0 C 91 % 0 lf 1024,8 hPa 0,0 l/m 0 min 0 min 0 W/m 10,5 km/h (2 Bft) 95,65 %
07.04.2017 06:10 5,6 C 6,1 C 5,0 C 92 % 0 lf 1024,8 hPa 0,0 l/m 0 min 0 min 0 W/m 14,6 km/h (3 Bft) 93,75 %
07.04.2017 06:12 5,7 C 6,1 C 5,0 C 92 % 0 lf 1024,9 hPa 0,0 l/m 0 min 0 min 0 W/m 10,5 km/h (2 Bft) 97,87 %
07.04.2017 06:14 5,7 C 6,1 C 5,0 C 92 % 0 lf 1024,8 hPa 0,0 l/m 0 min 0 min 0 W/m 12,6 km/h (3 Bft) 95,74 %
07.04.2017 06:16 5,7 C 6,1 C 5,0 C 92 % 0 lf 1024,9 hPa 0,0 l/m 0 min 0 min 0 W/m 8,4 km/h (2 Bft) 95,83 %
07.04.2017 06:18 5,7 C 6,1 C 5,0 C 92 % 0 lf 1024,8 hPa 0,0 l/m 0 min 0 min 0 W/m 10,5 km/h (2 Bft) 95,65 %
07.04.2017 06:20 5,7 C 6,1 C 5,0 C 92 % 0 lf 1024,7 hPa 0,0 l/m 0 min 0 min 0 W/m 10,5 km/h (2 Bft) 97,87 %
07.04.2017 06:22 5,7 C 6,1 C 5,0 C 92 % 0 lf 1024,8 hPa 0,0 l/m 0 min 0 min 0 W/m 12,6 km/h (3 Bft) 95,74 %
07.04.2017 06:24 5,7 C 6,1 C 5,0 C 92 % 0 lf 1024,8 hPa 0,0 l/m 0 min 0 min 0 W/m 8,4 km/h (2 Bft) 93,62 %
07.04.2017 06:26 5,7 C 6,1 C 5,0 C 92 % 0 lf 1024,7 hPa 0,0 l/m 0 min 0 min 0 W/m 10,5 km/h (2 Bft) 93,62 %
07.04.2017 06:28 5,7 C 6,1 C 5,0 C 92 % 0 lf 1024,8 hPa 0,0 l/m 0 min 0 min 0 W/m 8,4 km/h (2 Bft) 97,87 %
07.04.2017 06:30 5,7 C 6,1 C 5,0 C 92 % 0 lf 1024,8 hPa 0,0 l/m 0 min 0 min 0 W/m 8,4 km/h (2 Bft) 95,65 %
07.04.2017 06:32 5,7 C 6,1 C 5,0 C 92 % 0 lf 1024,8 hPa 0,0 l/m 0 min 0 min 0 W/m 6,3 km/h (2 Bft) 95,74 %
07.04.2017 06:34 5,7 C 6,1 C 5,0 C 91 % 0 lf 1024,8 hPa 0,0 l/m 0 min 0 min 0 W/m 4,2 km/h (1 Bft) 93,62 %
07.04.2017 06:36 5,7 C 6,1 C 5,0 C 91 % 0 lf 1024,7 hPa 0,0 l/m 0 min 0 min 0 W/m 8,4 km/h (2 Bft) 97,87 %
07.04.2017 06:38 5,7 C 6,1 C 5,0 C 91 % 0 lf 1024,7 hPa 0,0 l/m 0 min 0 min 0 W/m 6,3 km/h (2 Bft) 100,00 %
07.04.2017 06:40 5,7 C 6,1 C 5,0 C 91 % 0 lf 1024,7 hPa 0,0 l/m 0 min 0 min 0 W/m 4,2 km/h (1 Bft) 100,00 %
07.04.2017 06:42 5,7 C 6,1 C 5,0 C 91 % 0 lf 1024,7 hPa 0,0 l/m 0 min 0 min 0 W/m 10,5 km/h (2 Bft) 95,65 %
07.04.2017 06:44 5,7 C 6,1 C 5,0 C 91 % 0 lf 1024,7 hPa 0,0 l/m 0 min 0 min 0 W/m 6,3 km/h (2 Bft) 97,87 %
07.04.2017 06:46 5,8 C 6,1 C 5,0 C 91 % 0 lf 1024,7 hPa 0,0 l/m 0 min 0 min 0 W/m 8,4 km/h (2 Bft) 100,00 %
07.04.2017 06:48 5,8 C 6,1 C 5,0 C 91 % 0 lf 1024,7 hPa 0,0 l/m 0 min 0 min 0 W/m 10,5 km/h (2 Bft) 100,00 %
07.04.2017 06:50 5,8 C 6,1 C 5,0 C 91 % 0 lf 1024,7 hPa 0,0 l/m 0 min 0 min 0 W/m 6,3 km/h (2 Bft) 97,87 %
07.04.2017 06:52 5,8 C 6,1 C 5,0 C 91 % 0 lf 1024,7 hPa 0,0 l/m 0 min 0 min 0 W/m 8,4 km/h (2 Bft) 97,83 %
07.04.2017 06:54 5,8 C 6,1 C 5,0 C 91 % 0 lf 1024,7 hPa 0,0 l/m 0 min 0 min 1 W/m 10,5 km/h (2 Bft) 97,87 %
07.04.2017 06:56 5,8 C 6,1 C 5,0 C 91 % 0 lf 1024,7 hPa 0,0 l/m 0 min 0 min 5 W/m 8,4 km/h (2 Bft) 100,00 %
07.04.2017 06:58 5,8 C 6,1 C 5,0 C 91 % 0 lf 1024,7 hPa 0,0 l/m 0 min 0 min 5 W/m 8,4 km/h (2 Bft) 100,00 %
07.04.2017 07:00 5,8 C 6,1 C 5,0 C 91 % 0 lf 1024,7 hPa 0,0 l/m 0 min 0 min 5 W/m 10,5 km/h (2 Bft) 100,00 %
07.04.2017 07:02 5,8 C 6,1 C 5,0 C 91 % 0 lf 1024,6 hPa 0,0 l/m 0 min 0 min 5 W/m 8,4 km/h (2 Bft) 100,00 %
07.04.2017 07:04 5,8 C 6,1 C 5,0 C 91 % 0 lf 1024,6 hPa 0,0 l/m 0 min 0 min 5 W/m 6,3 km/h (2 Bft) 95,65 %
07.04.2017 07:06 5,9 C 6,1 C 5,0 C 91 % 0 lf 1024,7 hPa 0,0 l/m 0 min 0 min 5 W/m 6,3 km/h (2 Bft) 100,00 %
07.04.2017 07:08 5,9 C 6,1 C 5,0 C 91 % 0 lf 1024,7 hPa 0,0 l/m 0 min 0 min 7 W/m 10,5 km/h (2 Bft) 100,00 %
07.04.2017 07:10 5,9 C 6,1 C 5,0 C 91 % 0 lf 1024,7 hPa 0,0 l/m 0 min 0 min 7 W/m 8,4 km/h (2 Bft) 100,00 %
07.04.2017 07:12 5,9 C 6,1 C 5,0 C 91 % 0 lf 1024,7 hPa 0,0 l/m 0 min 0 min 7 W/m 6,3 km/h (2 Bft) 100,00 %
07.04.2017 07:14 5,9 C 6,1 C 5,0 C 91 % 0 lf 1024,7 hPa 0,0 l/m 0 min 0 min 8 W/m 8,4 km/h (2 Bft) 100,00 %
07.04.2017 07:16 5,9 C 6,1 C 5,0 C 91 % 0 lf 1024,6 hPa 0,0 l/m 0 min 0 min 9 W/m 8,4 km/h (2 Bft) 97,96 %
07.04.2017 07:18 5,9 C 6,1 C 5,0 C 91 % 0 lf 1024,7 hPa 0,0 l/m 0 min 0 min 9 W/m 8,4 km/h (2 Bft) 97,87 %
07.04.2017 07:20 5,9 C 6,1 C 5,0 C 91 % 0 lf 1024,6 hPa 0,0 l/m 0 min 0 min 9 W/m 6,3 km/h (2 Bft) 95,83 %
07.04.2017 07:22 5,9 C 6,1 C 5,0 C 91 % 0 lf 1024,7 hPa 0,0 l/m 0 min 0 min 10 W/m 6,3 km/h (2 Bft) 95,74 %
07.04.2017 07:24 5,9 C 6,7 C 5,0 C 91 % 0 lf 1024,8 hPa 0,0 l/m 0 min 0 min 11 W/m 14,6 km/h (3 Bft) 97,87 %
07.04.2017 07:26 6,0 C 6,7 C 5,0 C 91 % 0 lf 1024,7 hPa 0,0 l/m 0 min 0 min 13 W/m 10,5 km/h (2 Bft) 97,87 %
07.04.2017 07:28 6,0 C 6,7 C 5,0 C 91 % 0 lf 1024,8 hPa 0,0 l/m 0 min 0 min 16 W/m 10,5 km/h (2 Bft) 95,65 %
07.04.2017 07:30 6,0 C 6,7 C 5,6 C 91 % 0 lf 1024,7 hPa 0,0 l/m 0 min 0 min 16 W/m 8,4 km/h (2 Bft) 97,87 %
07.04.2017 07:32 6,0 C 6,7 C 5,6 C 91 % 0 lf 1024,7 hPa 0,0 l/m 0 min 0 min 18 W/m 6,3 km/h (2 Bft) 95,74 %
07.04.2017 07:34 6,0 C 6,7 C 5,6 C 91 % 0 lf 1024,8 hPa 0,0 l/m 0 min 0 min 20 W/m 8,4 km/h (2 Bft) 95,74 %
07.04.2017 07:36 6,0 C 6,7 C 5,6 C 91 % 0 lf 1024,8 hPa 0,0 l/m 0 min 0 min 21 W/m 6,3 km/h (2 Bft) 93,62 %
07.04.2017 07:38 6,1 C 6,7 C 5,6 C 91 % 0 lf 1024,8 hPa 0,0 l/m 0 min 0 min 22 W/m 4,2 km/h (1 Bft) 97,87 %
07.04.2017 07:40 6,1 C 6,7 C 5,6 C 91 % 0 lf 1024,8 hPa 0,0 l/m 0 min 0 min 24 W/m 6,3 km/h (2 Bft) 93,48 %
07.04.2017 07:42 6,1 C 6,7 C 5,6 C 91 % 0 lf 1024,8 hPa 0,0 l/m 0 min 0 min 25 W/m 10,5 km/h (2 Bft) 97,67 %
07.04.2017 07:44 6,1 C 6,7 C 5,6 C 91 % 0 lf 1024,8 hPa 0,0 l/m 0 min 0 min 27 W/m 8,4 km/h (2 Bft) 97,87 %
07.04.2017 07:46 6,1 C 6,7 C 5,6 C 91 % 0 lf 1024,8 hPa 0,0 l/m 0 min 0 min 28 W/m 8,4 km/h (2 Bft) 98,00 %
07.04.2017 07:48 6,1 C 6,7 C 5,6 C 91 % 0 lf 1024,8 hPa 0,0 l/m 0 min 0 min 28 W/m 10,5 km/h (2 Bft) 93,75 %
07.04.2017 07:50 6,1 C 6,7 C 5,6 C 91 % 0 lf 1024,9 hPa 0,0 l/m 0 min 0 min 29 W/m 10,5 km/h (2 Bft) 97,87 %
07.04.2017 07:52 6,1 C 6,7 C 5,6 C 91 % 0 lf 1024,8 hPa 0,0 l/m 0 min 0 min 31 W/m 10,5 km/h (2 Bft) 97,83 %
07.04.2017 07:54 6,2 C 6,7 C 5,6 C 91 % 0 lf 1024,9 hPa 0,0 l/m 0 min 0 min 32 W/m 8,4 km/h (2 Bft) 91,49 %
07.04.2017 07:56 6,2 C 6,7 C 5,6 C 91 % 0 lf 1024,9 hPa 0,0 l/m 0 min 0 min 33 W/m 14,6 km/h (3 Bft) 97,87 %
07.04.2017 07:58 6,2 C 6,7 C 5,6 C 91 % 0 lf 1024,9 hPa 0,0 l/m 0 min 0 min 36 W/m 8,4 km/h (2 Bft) 97,87 %
07.04.2017 08:00 6,2 C 6,7 C 5,6 C 91 % 0 lf 1024,9 hPa 0,0 l/m 0 min 0 min 39 W/m 8,4 km/h (2 Bft) 97,67 %
07.04.2017 08:02 6,2 C 6,7 C 6,1 C 91 % 0 lf 1024,9 hPa 0,0 l/m 0 min 0 min 41 W/m 10,5 km/h (2 Bft) 93,48 %
07.04.2017 08:04 6,2 C 6,7 C 6,1 C 90 % 0 lf 1024,9 hPa 0,0 l/m 0 min 0 min 43 W/m 12,6 km/h (3 Bft) 97,87 %
07.04.2017 08:06 6,2 C 6,7 C 6,1 C 90 % 0 lf 1024,9 hPa 0,0 l/m 0 min 0 min 45 W/m 12,6 km/h (3 Bft) 97,87 %
07.04.2017 08:08 6,3 C 7,2 C 6,1 C 90 % 0 lf 1024,8 hPa 0,0 l/m 0 min 0 min 48 W/m 12,6 km/h (3 Bft) 95,74 %
07.04.2017 08:10 6,3 C 7,2 C 6,1 C 90 % 0 lf 1024,9 hPa 0,0 l/m 0 min 0 min 52 W/m 12,6 km/h (3 Bft) 93,62 %
07.04.2017 08:12 6,3 C 7,2 C 6,1 C 90 % 0 lf 1024,8 hPa 0,0 l/m 0 min 0 min 57 W/m 10,5 km/h (2 Bft) 97,87 %
07.04.2017 08:14 6,3 C 7,2 C 6,1 C 90 % 0 lf 1024,8 hPa 0,0 l/m 0 min 0 min 60 W/m 10,5 km/h (2 Bft) 97,83 %
07.04.2017 08:16 6,3 C 7,2 C 6,1 C 90 % 0 lf 1024,9 hPa 0,0 l/m 0 min 0 min 58 W/m 14,6 km/h (3 Bft) 95,74 %
07.04.2017 08:18 6,4 C 7,2 C 6,1 C 90 % 0 lf 1024,8 hPa 0,0 l/m 0 min 0 min 57 W/m 10,5 km/h (2 Bft) 95,74 %
07.04.2017 08:20 6,4 C 7,2 C 6,1 C 90 % 0 lf 1024,8 hPa 0,0 l/m 0 min 0 min 58 W/m 12,6 km/h (3 Bft) 94,00 %
07.04.2017 08:22 6,4 C 7,2 C 6,1 C 90 % 0 lf 1024,8 hPa 0,0 l/m 0 min 0 min 60 W/m 8,4 km/h (2 Bft) 97,92 %
07.04.2017 08:24 6,4 C 7,2 C 6,7 C 90 % 0 lf 1024,8 hPa 0,0 l/m 0 min 0 min 61 W/m 10,5 km/h (2 Bft) 95,74 %
07.04.2017 08:26 6,4 C 7,2 C 6,7 C 90 % 0 lf 1024,9 hPa 0,0 l/m 0 min 0 min 64 W/m 10,5 km/h (2 Bft) 93,48 %
07.04.2017 08:28 6,4 C 7,2 C 6,7 C 90 % 0 lf 1024,9 hPa 0,0 l/m 0 min 0 min 68 W/m 16,7 km/h (3 Bft) 97,87 %
07.04.2017 08:30 6,4 C 7,2 C 6,7 C 90 % 0 lf 1024,9 hPa 0,0 l/m 0 min 0 min 70 W/m 12,6 km/h (3 Bft) 95,74 %
07.04.2017 08:32 6,4 C 7,2 C 6,7 C 90 % 0 lf 1024,9 hPa 0,0 l/m 0 min 0 min 72 W/m 10,5 km/h (2 Bft) 93,62 %
07.04.2017 08:34 6,5 C 7,8 C 6,7 C 90 % 0 lf 1024,9 hPa 0,0 l/m 0 min 0 min 73 W/m 12,6 km/h (3 Bft) 97,87 %
07.04.2017 08:36 6,5 C 7,8 C 6,7 C 90 % 0 lf 1024,9 hPa 0,0 l/m 0 min 0 min 75 W/m 10,5 km/h (2 Bft) 95,74 %
07.04.2017 08:38 6,5 C 7,8 C 6,7 C 90 % 0 lf 1024,9 hPa 0,0 l/m 0 min 0 min 74 W/m 10,5 km/h (2 Bft) 97,83 %
07.04.2017 08:40 6,6 C 7,8 C 7,2 C 90 % 0 lf 1025,0 hPa 0,0 l/m 0 min 0 min 75 W/m 6,3 km/h (2 Bft) 100,00 %
07.04.2017 08:42 6,6 C 7,8 C 7,2 C 90 % 0 lf 1025,0 hPa 0,0 l/m 0 min 0 min 76 W/m 14,6 km/h (3 Bft) 100,00 %
07.04.2017 08:44 6,6 C 7,8 C 7,2 C 89 % 0 lf 1025,0 hPa 0,0 l/m 0 min 0 min 77 W/m 10,5 km/h (2 Bft) 93,62 %
07.04.2017 08:46 6,6 C 7,8 C 6,7 C 90 % 0 lf 1025,0 hPa 0,0 l/m 0 min 0 min 78 W/m 10,5 km/h (2 Bft) 97,87 %
07.04.2017 08:48 6,7 C 7,8 C 7,2 C 89 % 0 lf 1025,0 hPa 0,0 l/m 0 min 0 min 83 W/m 18,8 km/h (3 Bft) 95,74 %
07.04.2017 08:50 6,7 C 7,8 C 7,2 C 89 % 0 lf 1024,9 hPa 0,0 l/m 0 min 0 min 86 W/m 10,5 km/h (2 Bft) 93,48 %
07.04.2017 08:52 6,7 C 7,8 C 7,2 C 89 % 0 lf 1025,0 hPa 0,0 l/m 0 min 0 min 85 W/m 8,4 km/h (2 Bft) 95,74 %
07.04.2017 08:54 6,8 C 7,8 C 7,2 C 89 % 0 lf 1025,0 hPa 0,0 l/m 0 min 0 min 83 W/m 8,4 km/h (2 Bft) 95,74 %
07.04.2017 08:56 6,8 C 7,8 C 7,2 C 89 % 0 lf 1025,0 hPa 0,0 l/m 0 min 0 min 84 W/m 14,6 km/h (3 Bft) 93,62 %
07.04.2017 08:58 6,8 C 7,8 C 7,2 C 89 % 0 lf 1025,0 hPa 0,0 l/m 0 min 0 min 88 W/m 12,6 km/h (3 Bft) 93,62 %
07.04.2017 09:00 6,9 C 8,3 C 7,2 C 89 % 0 lf 1025,0 hPa 0,0 l/m 0 min 0 min 95 W/m 14,6 km/h (3 Bft) 89,13 %
07.04.2017 09:02 6,9 C 7,8 C 7,2 C 89 % 0 lf 1025,0 hPa 0,0 l/m 0 min 0 min 99 W/m 16,7 km/h (3 Bft) 93,62 %
07.04.2017 09:04 6,9 C 8,3 C 7,2 C 89 % 0 lf 1024,9 hPa 0,0 l/m 0 min 0 min 103 W/m 12,6 km/h (3 Bft) 95,74 %
07.04.2017 09:06 7,0 C 8,3 C 7,8 C 89 % 0 lf 1024,9 hPa 0,0 l/m 0 min 0 min 105 W/m 12,6 km/h (3 Bft) 93,62 %
07.04.2017 09:08 7,0 C 8,3 C 7,8 C 89 % 0 lf 1024,9 hPa 0,0 l/m 0 min 0 min 107 W/m 14,6 km/h (3 Bft) 93,62 %
07.04.2017 09:10 7,1 C 8,3 C 7,8 C 89 % 0 lf 1024,9 hPa 0,0 l/m 0 min 0 min 103 W/m 8,4 km/h (2 Bft) 93,62 %
07.04.2017 09:12 7,1 C 8,3 C 7,8 C 88 % 0 lf 1024,9 hPa 0,0 l/m 0 min 0 min 105 W/m 12,6 km/h (3 Bft) 93,48 %
07.04.2017 09:14 7,1 C 8,9 C 7,8 C 88 % 0 lf 1024,9 hPa 0,0 l/m 0 min 0 min 109 W/m 16,7 km/h (3 Bft) 95,74 %
07.04.2017 09:16 7,2 C 8,3 C 7,8 C 88 % 0 lf 1024,8 hPa 0,0 l/m 0 min 0 min 108 W/m 16,7 km/h (3 Bft) 93,62 %
07.04.2017 09:18 7,2 C 8,9 C 7,8 C 88 % 0 lf 1024,8 hPa 0,0 l/m 0 min 0 min 111 W/m 10,5 km/h (2 Bft) 91,49 %
07.04.2017 09:20 7,2 C 8,3 C 7,8 C 88 % 0 lf 1024,8 hPa 0,0 l/m 0 min 0 min 116 W/m 12,6 km/h (3 Bft) 93,62 %
07.04.2017 09:22 7,2 C 8,9 C 7,8 C 88 % 0 lf 1024,8 hPa 0,0 l/m 0 min 0 min 123 W/m 8,4 km/h (2 Bft) 88,37 %
07.04.2017 09:24 7,3 C 8,9 C 8,3 C 88 % 0 lf 1024,8 hPa 0,0 l/m 0 min 0 min 127 W/m 12,6 km/h (3 Bft) 93,48 %
07.04.2017 09:26 7,3 C 8,9 C 8,3 C 88 % 0 lf 1024,9 hPa 0,0 l/m 0 min 0 min 131 W/m 14,6 km/h (3 Bft) 89,36 %
07.04.2017 09:28 7,4 C 8,9 C 8,3 C 88 % 0 lf 1024,8 hPa 0,0 l/m 0 min 0 min 135 W/m 8,4 km/h (2 Bft) 93,62 %
07.04.2017 09:30 7,4 C 8,9 C 8,3 C 88 % 0 lf 1024,8 hPa 0,0 l/m 0 min 0 min 141 W/m 16,7 km/h (3 Bft) 93,62 %
07.04.2017 09:32 7,4 C 8,9 C 8,3 C 88 % 0 lf 1024,9 hPa 0,0 l/m 0 min 0 min 143 W/m 14,6 km/h (3 Bft) 93,62 %
07.04.2017 09:34 7,5 C 9,4 C 8,9 C 88 % 0 lf 1024,9 hPa 0,0 l/m 0 min 0 min 140 W/m 8,4 km/h (2 Bft) 95,74 %
07.04.2017 09:36 7,6 C 9,4 C 8,9 C 88 % 0 lf 1024,9 hPa 0,0 l/m 0 min 0 min 140 W/m 8,4 km/h (2 Bft) 95,65 %
07.04.2017 09:38 7,6 C 9,4 C 8,9 C 87 % 0 lf 1024,8 hPa 0,0 l/m 0 min 0 min 145 W/m 10,5 km/h (2 Bft) 93,62 %
07.04.2017 09:40 7,7 C 9,4 C 8,9 C 87 % 0 lf 1024,9 hPa 0,0 l/m 0 min 0 min 147 W/m 12,6 km/h (3 Bft) 95,74 %
07.04.2017 09:42 7,7 C 9,4 C 8,9 C 87 % 0 lf 1024,9 hPa 0,0 l/m 0 min 0 min 148 W/m 10,5 km/h (2 Bft) 91,49 %
07.04.2017 09:44 7,7 C 10,0 C 8,9 C 87 % 0 lf 1024,9 hPa 0,0 l/m 0 min 0 min 150 W/m 14,6 km/h (3 Bft) 95,74 %
07.04.2017 09:46 7,8 C 10,0 C 8,9 C 87 % 0 lf 1024,9 hPa 0,0 l/m 0 min 0 min 151 W/m 12,6 km/h (3 Bft) 97,96 %
07.04.2017 09:48 7,8 C 9,4 C 8,9 C 86 % 0 lf 1024,8 hPa 0,0 l/m 0 min 0 min 149 W/m 10,5 km/h (2 Bft) 97,87 %
07.04.2017 09:50 7,9 C 9,4 C 8,9 C 86 % 0 lf 1024,9 hPa 0,0 l/m 0 min 0 min 149 W/m 10,5 km/h (2 Bft) 97,87 %
07.04.2017 09:52 7,9 C 10,0 C 8,9 C 86 % 0 lf 1024,9 hPa 0,0 l/m 0 min 0 min 150 W/m 16,7 km/h (3 Bft) 95,83 %
07.04.2017 09:54 7,9 C 9,4 C 8,9 C 86 % 0 lf 1024,9 hPa 0,0 l/m 0 min 0 min 154 W/m 14,6 km/h (3 Bft) 97,87 %
07.04.2017 09:56 8,0 C 10,0 C 8,9 C 86 % 0 lf 1024,9 hPa 0,0 l/m 0 min 0 min 160 W/m 18,8 km/h (3 Bft) 100,00 %
07.04.2017 09:58 8,1 C 10,0 C 9,4 C 85 % 0 lf 1024,9 hPa 0,0 l/m 0 min 0 min 173 W/m 14,6 km/h (3 Bft) 100,00 %
07.04.2017 10:00 8,1 C 10,6 C 9,4 C 85 % 0 lf 1024,8 hPa 0,0 l/m 0 min 0 min 183 W/m 14,6 km/h (3 Bft) 97,83 %
07.04.2017 10:02 8,1 C 10,6 C 9,4 C 85 % 0 lf 1024,8 hPa 0,0 l/m 0 min 0 min 185 W/m 20,9 km/h (4 Bft) 100,00 %
07.04.2017 10:04 8,2 C 10,6 C 9,4 C 85 % 0 lf 1024,8 hPa 0,0 l/m 0 min 0 min 187 W/m 10,5 km/h (2 Bft) 100,00 %
07.04.2017 10:06 8,3 C 10,6 C 9,4 C 85 % 0 lf 1024,8 hPa 0,0 l/m 0 min 0 min 186 W/m 12,6 km/h (3 Bft) 97,87 %
07.04.2017 10:08 8,3 C 10,6 C 10,0 C 85 % 0 lf 1024,8 hPa 0,0 l/m 0 min 0 min 188 W/m 8,4 km/h (2 Bft) 97,87 %
07.04.2017 10:10 8,4 C 10,6 C 10,0 C 85 % 0 lf 1024,9 hPa 0,0 l/m 0 min 0 min 196 W/m 8,4 km/h (2 Bft) 97,83 %
07.04.2017 10:12 8,4 C 11,1 C 10,6 C 85 % 0 lf 1024,8 hPa 0,0 l/m 0 min 0 min 201 W/m 12,6 km/h (3 Bft) 100,00 %
07.04.2017 10:14 8,5 C 11,1 C 10,6 C 85 % 0 lf 1024,8 hPa 0,0 l/m 0 min 0 min 197 W/m 14,6 km/h (3 Bft) 97,87 %
07.04.2017 10:16 8,6 C 11,1 C 10,6 C 84 % 0 lf 1024,9 hPa 0,0 l/m 0 min 0 min 195 W/m 10,5 km/h (2 Bft) 100,00 %
07.04.2017 10:18 8,6 C 11,1 C 10,6 C 84 % 0 lf 1024,8 hPa 0,0 l/m 0 min 0 min 198 W/m 10,5 km/h (2 Bft) 100,00 %
07.04.2017 10:20 8,7 C 11,1 C 10,6 C 84 % 0 lf 1024,8 hPa 0,0 l/m 0 min 0 min 202 W/m 6,3 km/h (2 Bft) 97,87 %
07.04.2017 10:22 8,7 C 11,7 C 10,6 C 84 % 0 lf 1024,8 hPa 0,0 l/m 0 min 0 min 203 W/m 10,5 km/h (2 Bft) 100,00 %
07.04.2017 10:24 8,8 C 11,7 C 10,6 C 84 % 0 lf 1024,9 hPa 0,0 l/m 0 min 0 min 208 W/m 10,5 km/h (2 Bft) 100,00 %
07.04.2017 10:26 8,9 C 11,7 C 11,1 C 83 % 0 lf 1024,8 hPa 0,0 l/m 0 min 0 min 213 W/m 8,4 km/h (2 Bft) 97,87 %
07.04.2017 10:28 8,9 C 11,7 C 11,1 C 83 % 0 lf 1024,8 hPa 0,0 l/m 0 min 0 min 212 W/m 12,6 km/h (3 Bft) 100,00 %
07.04.2017 10:30 9,0 C 11,1 C 10,6 C 83 % 0 lf 1024,8 hPa 0,0 l/m 0 min 0 min 219 W/m 12,6 km/h (3 Bft) 100,00 %
07.04.2017 10:32 9,1 C 11,7 C 11,1 C 83 % 0 lf 1024,8 hPa 0,0 l/m 0 min 0 min 232 W/m 12,6 km/h (3 Bft) 100,00 %
07.04.2017 10:34 9,1 C 11,1 C 11,1 C 82 % 0 lf 1024,9 hPa 0,0 l/m 0 min 0 min 248 W/m 12,6 km/h (3 Bft) 100,00 %
07.04.2017 10:36 9,2 C 11,7 C 11,1 C 82 % 0 lf 1024,8 hPa 0,0 l/m 0 min 0 min 253 W/m 12,6 km/h (3 Bft) 95,74 %
07.04.2017 10:38 9,2 C 12,2 C 11,7 C 82 % 0 lf 1024,8 hPa 0,0 l/m 0 min 0 min 240 W/m 12,6 km/h (3 Bft) 97,87 %
07.04.2017 10:40 9,3 C 12,2 C 11,7 C 82 % 0 lf 1024,8 hPa 0,0 l/m 0 min 0 min 241 W/m 14,6 km/h (3 Bft) 100,00 %
07.04.2017 10:42 9,3 C 12,2 C 11,7 C 81 % 0 lf 1024,8 hPa 0,0 l/m 0 min 0 min 242 W/m 18,8 km/h (3 Bft) 100,00 %
07.04.2017 10:44 9,4 C 11,7 C 11,7 C 81 % 0 lf 1024,8 hPa 0,0 l/m 0 min 0 min 256 W/m 12,6 km/h (3 Bft) 93,62 %
07.04.2017 10:46 9,4 C 12,2 C 11,7 C 81 % 0 lf 1024,8 hPa 0,0 l/m 0 min 0 min 245 W/m 12,6 km/h (3 Bft) 97,83 %
07.04.2017 10:48 9,5 C 11,7 C 11,7 C 81 % 0 lf 1024,9 hPa 0,0 l/m 0 min 0 min 256 W/m 16,7 km/h (3 Bft) 97,87 %
07.04.2017 10:50 9,6 C 11,7 C 11,7 C 80 % 0 lf 1024,9 hPa 0,0 l/m 0 min 0 min 256 W/m 12,6 km/h (3 Bft) 97,87 %
07.04.2017 10:52 9,6 C 11,7 C 11,7 C 81 % 0 lf 1024,9 hPa 0,0 l/m 0 min 0 min 231 W/m 12,6 km/h (3 Bft) 97,87 %
07.04.2017 10:54 9,7 C 12,2 C 11,7 C 80 % 0 lf 1024,9 hPa 0,0 l/m 0 min 0 min 238 W/m 10,5 km/h (2 Bft) 97,87 %
07.04.2017 10:56 9,7 C 12,2 C 12,2 C 80 % 0 lf 1024,9 hPa 0,0 l/m 0 min 0 min 239 W/m 14,6 km/h (3 Bft) 95,74 %
07.04.2017 10:58 9,8 C 12,2 C 11,7 C 80 % 0 lf 1024,8 hPa 0,0 l/m 0 min 0 min 226 W/m 12,6 km/h (3 Bft) 91,30 %
07.04.2017 11:00 9,8 C 12,2 C 11,7 C 80 % 0 lf 1024,9 hPa 0,0 l/m 0 min 0 min 211 W/m 10,5 km/h (2 Bft) 93,62 %
07.04.2017 11:02 9,9 C 12,8 C 11,7 C 80 % 0 lf 1024,9 hPa 0,0 l/m 0 min 0 min 203 W/m 10,5 km/h (2 Bft) 95,74 %
07.04.2017 11:04 9,9 C 12,2 C 11,7 C 80 % 0 lf 1024,9 hPa 0,0 l/m 0 min 0 min 203 W/m 14,6 km/h (3 Bft) 97,87 %
07.04.2017 11:06 10,0 C 12,8 C 11,7 C 80 % 0 lf 1024,9 hPa 0,0 l/m 0 min 0 min 210 W/m 12,6 km/h (3 Bft) 91,49 %
07.04.2017 11:08 10,1 C 12,8 C 11,7 C 79 % 0 lf 1024,9 hPa 0,0 l/m 0 min 0 min 215 W/m 16,7 km/h (3 Bft) 97,83 %
07.04.2017 11:10 10,1 C 12,8 C 12,2 C 78 % 0 lf 1024,9 hPa 0,0 l/m 0 min 0 min 216 W/m 12,6 km/h (3 Bft) 95,74 %
07.04.2017 11:12 10,1 C 12,8 C 12,2 C 78 % 0 lf 1024,9 hPa 0,0 l/m 0 min 0 min 206 W/m 8,4 km/h (2 Bft) 97,87 %
07.04.2017 11:14 10,2 C 12,8 C 12,2 C 78 % 0 lf 1024,9 hPa 0,0 l/m 2 min 0 min 338 W/m 10,5 km/h (2 Bft) 93,62 %
07.04.2017 11:16 10,2 C 12,8 C 11,7 C 78 % 0 lf 1024,9 hPa 0,0 l/m 2 min 0 min 321 W/m 10,5 km/h (2 Bft) 93,62 %
07.04.2017 11:18 10,3 C 13,3 C 12,2 C 78 % 0 lf 1024,9 hPa 0,0 l/m 0 min 0 min 216 W/m 12,6 km/h (3 Bft) 95,74 %
07.04.2017 11:20 10,3 C 13,3 C 12,2 C 78 % 0 lf 1024,9 hPa 0,0 l/m 0 min 0 min 215 W/m 12,6 km/h (3 Bft) 93,48 %
07.04.2017 11:22 10,4 C 13,3 C 12,2 C 78 % 0 lf 1024,9 hPa 0,0 l/m 0 min 0 min 217 W/m 12,6 km/h (3 Bft) 93,62 %
07.04.2017 11:24 10,5 C 13,3 C 12,8 C 78 % 0 lf 1024,9 hPa 0,0 l/m 0 min 0 min 219 W/m 12,6 km/h (3 Bft) 93,62 %
07.04.2017 11:26 10,6 C 12,8 C 12,8 C 78 % 0 lf 1024,9 hPa 0,0 l/m 0 min 0 min 290 W/m 10,5 km/h (2 Bft) 95,74 %
07.04.2017 11:28 10,6 C 13,3 C 12,2 C 77 % 0 lf 1024,9 hPa 0,0 l/m 2 min 0 min 437 W/m 12,6 km/h (3 Bft) 95,74 %
07.04.2017 11:30 10,7 C 13,3 C 12,8 C 77 % 0 lf 1024,9 hPa 0,0 l/m 2 min 0 min 431 W/m 14,6 km/h (3 Bft) 93,62 %
07.04.2017 11:32 10,7 C 13,3 C 12,8 C 77 % 0 lf 1024,8 hPa 0,0 l/m 2 min 0 min 417 W/m 10,5 km/h (2 Bft) 93,48 %
07.04.2017 11:34 10,8 C 13,3 C 12,8 C 77 % 0 lf 1024,8 hPa 0,0 l/m 2 min 0 min 427 W/m 12,6 km/h (3 Bft) 89,36 %
07.04.2017 11:36 10,8 C 13,3 C 13,3 C 77 % 0 lf 1024,7 hPa 0,0 l/m 2 min 0 min 433 W/m 10,5 km/h (2 Bft) 93,62 %
07.04.2017 11:38 10,9 C 13,3 C 13,3 C 76 % 0 lf 1024,8 hPa 0,0 l/m 2 min 0 min 391 W/m 12,6 km/h (3 Bft) 95,74 %
07.04.2017 11:40 10,9 C 13,9 C 13,3 C 76 % 0 lf 1024,7 hPa 0,0 l/m 0 min 0 min 291 W/m 10,5 km/h (2 Bft) 97,87 %
07.04.2017 11:42 10,9 C 14,4 C 13,3 C 76 % 0 lf 1024,7 hPa 0,0 l/m 0 min 0 min 294 W/m 12,6 km/h (3 Bft) 93,62 %
07.04.2017 11:44 11,0 C 14,4 C 13,3 C 76 % 0 lf 1024,8 hPa 0,0 l/m 0 min 0 min 287 W/m 12,6 km/h (3 Bft) 93,48 %
07.04.2017 11:46 11,1 C 13,9 C 13,9 C 76 % 0 lf 1024,8 hPa 0,0 l/m 2 min 0 min 381 W/m 10,5 km/h (2 Bft) 95,74 %
07.04.2017 11:48 11,1 C 13,3 C 13,3 C 75 % 0 lf 1024,7 hPa 0,0 l/m 2 min 0 min 463 W/m 12,6 km/h (3 Bft) 97,87 %
07.04.2017 11:50 11,1 C 13,3 C 13,3 C 75 % 0 lf 1024,8 hPa 0,0 l/m 2 min 0 min 440 W/m 10,5 km/h (2 Bft) 95,74 %
07.04.2017 11:52 11,2 C 13,9 C 13,3 C 75 % 0 lf 1024,8 hPa 0,0 l/m 2 min 0 min 441 W/m 10,5 km/h (2 Bft) 98,00 %
07.04.2017 11:54 11,2 C 13,9 C 12,8 C 75 % 0 lf 1024,8 hPa 0,0 l/m 2 min 0 min 452 W/m 12,6 km/h (3 Bft) 97,83 %
07.04.2017 11:56 11,3 C 13,9 C 13,3 C 75 % 0 lf 1024,8 hPa 0,0 l/m 2 min 0 min 462 W/m 12,6 km/h (3 Bft) 97,87 %
07.04.2017 11:58 11,3 C 14,4 C 13,9 C 75 % 0 lf 1024,8 hPa 0,0 l/m 2 min 0 min 476 W/m 6,3 km/h (2 Bft) 97,87 %
07.04.2017 12:00 11,4 C 14,4 C 13,9 C 75 % 0 lf 1024,7 hPa 0,0 l/m 2 min 0 min 512 W/m 16,7 km/h (3 Bft) 95,74 %
07.04.2017 12:02 11,4 C 14,4 C 13,9 C 74 % 0 lf 1024,7 hPa 0,0 l/m 2 min 0 min 561 W/m 14,6 km/h (3 Bft) 97,87 %
07.04.2017 12:04 11,5 C 14,4 C 13,9 C 74 % 0 lf 1024,6 hPa 0,0 l/m 2 min 0 min 546 W/m 14,6 km/h (3 Bft) 95,74 %
07.04.2017 12:06 11,6 C 15,0 C 13,9 C 74 % 0 lf 1024,6 hPa 0,0 l/m 2 min 0 min 582 W/m 16,7 km/h (3 Bft) 95,74 %
07.04.2017 12:08 11,6 C 15,0 C 14,4 C 74 % 0 lf 1024,6 hPa 0,0 l/m 2 min 0 min 632 W/m 14,6 km/h (3 Bft) 97,87 %
07.04.2017 12:10 11,7 C 15,6 C 15,0 C 74 % 0 lf 1024,6 hPa 0,0 l/m 2 min 0 min 638 W/m 8,4 km/h (2 Bft) 97,87 %
07.04.2017 12:12 11,8 C 16,1 C 15,6 C 74 % 0 lf 1024,6 hPa 0,0 l/m 2 min 0 min 629 W/m 8,4 km/h (2 Bft) 95,74 %
07.04.2017 12:14 11,8 C 17,2 C 16,1 C 75 % 0 lf 1024,6 hPa 0,0 l/m 2 min 0 min 634 W/m 10,5 km/h (2 Bft) 97,87 %
07.04.2017 12:16 12,0 C 17,8 C 15,6 C 75 % 0 lf 1024,6 hPa 0,0 l/m 2 min 0 min 629 W/m 16,7 km/h (3 Bft) 97,87 %
07.04.2017 12:18 12,1 C 17,2 C 16,1 C 74 % 0 lf 1024,6 hPa 0,0 l/m 2 min 0 min 650 W/m 8,4 km/h (2 Bft) 95,65 %
07.04.2017 12:20 12,2 C 17,8 C 16,1 C 74 % 0 lf 1024,6 hPa 0,0 l/m 2 min 0 min 614 W/m 10,5 km/h (2 Bft) 97,87 %
07.04.2017 12:22 12,3 C 17,2 C 15,6 C 74 % 0 lf 1024,6 hPa 0,0 l/m 2 min 0 min 564 W/m 14,6 km/h (3 Bft) 93,62 %
07.04.2017 12:24 12,3 C 16,7 C 15,0 C 73 % 0 lf 1024,6 hPa 0,0 l/m 2 min 0 min 586 W/m 16,7 km/h (3 Bft) 93,62 %
07.04.2017 12:26 12,4 C 16,7 C 15,0 C 72 % 0 lf 1024,6 hPa 0,0 l/m 2 min 0 min 622 W/m 12,6 km/h (3 Bft) 95,74 %
07.04.2017 12:28 12,4 C 16,7 C 15,0 C 72 % 0 lf 1024,6 hPa 0,0 l/m 2 min 0 min 608 W/m 20,9 km/h (4 Bft) 97,87 %
07.04.2017 12:30 12,4 C 16,7 C 15,0 C 72 % 0 lf 1024,6 hPa 0,0 l/m 2 min 0 min 588 W/m 12,6 km/h (3 Bft) 97,83 %
07.04.2017 12:32 12,5 C 16,1 C 14,4 C 72 % 0 lf 1024,6 hPa 0,0 l/m 2 min 0 min 588 W/m 14,6 km/h (3 Bft) 95,74 %
07.04.2017 12:34 12,5 C 16,1 C 15,0 C 72 % 0 lf 1024,6 hPa 0,0 l/m 2 min 0 min 613 W/m 18,8 km/h (3 Bft) 97,87 %
07.04.2017 12:36 12,6 C 15,6 C 15,0 C 72 % 0 lf 1024,6 hPa 0,0 l/m 2 min 0 min 653 W/m 10,5 km/h (2 Bft) 97,87 %
07.04.2017 12:38 12,6 C 16,1 C 15,0 C 71 % 0 lf 1024,6 hPa 0,0 l/m 2 min 0 min 649 W/m 12,6 km/h (3 Bft) 95,74 %
07.04.2017 12:40 12,6 C 16,1 C 15,0 C 71 % 0 lf 1024,6 hPa 0,0 l/m 2 min 0 min 638 W/m 14,6 km/h (3 Bft) 95,74 %
07.04.2017 12:42 12,6 C 15,6 C 15,0 C 71 % 0 lf 1024,5 hPa 0,0 l/m 2 min 0 min 627 W/m 12,6 km/h (3 Bft) 97,87 %
07.04.2017 12:44 12,7 C 15,6 C 15,0 C 71 % 0 lf 1024,6 hPa 0,0 l/m 2 min 0 min 658 W/m 12,6 km/h (3 Bft) 95,65 %
07.04.2017 12:46 12,7 C 15,6 C 15,0 C 71 % 0 lf 1024,5 hPa 0,0 l/m 2 min 0 min 677 W/m 12,6 km/h (3 Bft) 93,62 %
07.04.2017 12:48 12,7 C 16,1 C 15,0 C 71 % 0 lf 1024,5 hPa 0,0 l/m 2 min 0 min 615 W/m 8,4 km/h (2 Bft) 97,87 %
07.04.2017 12:50 12,8 C 16,7 C 15,0 C 71 % 0 lf 1024,4 hPa 0,0 l/m 2 min 0 min 629 W/m 18,8 km/h (3 Bft) 97,87 %
07.04.2017 12:52 12,8 C 17,2 C 15,6 C 71 % 0 lf 1024,6 hPa 0,0 l/m 2 min 0 min 647 W/m 14,6 km/h (3 Bft) 97,87 %
07.04.2017 12:54 12,9 C 17,2 C 16,1 C 71 % 0 lf 1024,5 hPa 0,0 l/m 2 min 0 min 630 W/m 16,7 km/h (3 Bft) 95,65 %
07.04.2017 12:56 12,9 C 16,7 C 15,6 C 71 % 0 lf 1024,5 hPa 0,0 l/m 2 min 0 min 615 W/m 16,7 km/h (3 Bft) 93,62 %
07.04.2017 12:58 12,9 C 17,2 C 15,6 C 70 % 0 lf 1024,4 hPa 0,0 l/m 2 min 0 min 604 W/m 10,5 km/h (2 Bft) 95,74 %
07.04.2017 13:00 13,0 C 17,2 C 15,6 C 70 % 0 lf 1024,4 hPa 0,0 l/m 2 min 0 min 588 W/m 8,4 km/h (2 Bft) 97,87 %
07.04.2017 13:02 13,0 C 17,2 C 15,6 C 70 % 0 lf 1024,4 hPa 0,0 l/m 2 min 0 min 561 W/m 6,3 km/h (2 Bft) 97,87 %
07.04.2017 13:04 13,1 C 17,8 C 15,6 C 70 % 0 lf 1024,4 hPa 0,0 l/m 2 min 0 min 569 W/m 8,4 km/h (2 Bft) 97,87 %
07.04.2017 13:06 13,1 C 17,8 C 15,6 C 71 % 0 lf 1024,4 hPa 0,0 l/m 2 min 0 min 521 W/m 8,4 km/h (2 Bft) 97,83 %
07.04.2017 13:08 13,1 C 16,7 C 16,1 C 71 % 0 lf 1024,4 hPa 0,0 l/m 2 min 0 min 683 W/m 10,5 km/h (2 Bft) 93,62 %
07.04.2017 13:10 13,2 C 16,1 C 15,6 C 71 % 0 lf 1024,5 hPa 0,0 l/m 2 min 0 min 579 W/m 10,5 km/h (2 Bft) 97,87 %
07.04.2017 13:12 13,2 C 16,1 C 15,0 C 70 % 0 lf 1024,5 hPa 0,0 l/m 2 min 0 min 468 W/m 12,6 km/h (3 Bft) 100,00 %
07.04.2017 13:14 13,2 C 16,1 C 15,0 C 71 % 0 lf 1024,5 hPa 0,0 l/m 2 min 0 min 461 W/m 8,4 km/h (2 Bft) 95,74 %
07.04.2017 13:16 13,3 C 16,1 C 15,0 C 71 % 0 lf 1024,4 hPa 0,0 l/m 2 min 0 min 460 W/m 12,6 km/h (3 Bft) 91,49 %
07.04.2017 13:18 13,3 C 16,1 C 15,0 C 70 % 0 lf 1024,3 hPa 0,0 l/m 2 min 0 min 454 W/m 12,6 km/h (3 Bft) 97,83 %
07.04.2017 13:20 13,3 C 15,6 C 14,4 C 69 % 0 lf 1024,4 hPa 0,0 l/m 2 min 0 min 442 W/m 16,7 km/h (3 Bft) 97,87 %
07.04.2017 13:22 13,3 C 15,6 C 14,4 C 69 % 0 lf 1024,4 hPa 0,0 l/m 2 min 0 min 451 W/m 18,8 km/h (3 Bft) 97,87 %
07.04.2017 13:24 13,3 C 15,6 C 14,4 C 70 % 0 lf 1024,4 hPa 0,0 l/m 2 min 0 min 467 W/m 12,6 km/h (3 Bft) 95,74 %
07.04.2017 13:26 13,3 C 15,0 C 14,4 C 69 % 0 lf 1024,4 hPa 0,0 l/m 2 min 0 min 458 W/m 10,5 km/h (2 Bft) 95,74 %
07.04.2017 13:28 13,3 C 15,0 C 14,4 C 69 % 0 lf 1024,5 hPa 0,0 l/m 2 min 0 min 444 W/m 6,3 km/h (2 Bft) 97,87 %
07.04.2017 13:30 13,3 C 15,0 C 14,4 C 69 % 0 lf 1024,5 hPa 0,0 l/m 2 min 0 min 435 W/m 10,5 km/h (2 Bft) 97,83 %
07.04.2017 13:32 13,3 C 15,0 C 13,9 C 69 % 0 lf 1024,5 hPa 0,0 l/m 2 min 0 min 424 W/m 12,6 km/h (3 Bft) 93,62 %
07.04.2017 13:34 13,3 C 15,0 C 13,9 C 70 % 0 lf 1024,4 hPa 0,0 l/m 2 min 0 min 423 W/m 14,6 km/h (3 Bft) 97,87 %
07.04.2017 13:36 13,2 C 15,0 C 13,9 C 70 % 0 lf 1024,4 hPa 0,0 l/m 2 min 0 min 428 W/m 12,6 km/h (3 Bft) 97,87 %
07.04.2017 13:38 13,2 C 15,0 C 13,9 C 70 % 0 lf 1024,4 hPa 0,0 l/m 2 min 0 min 431 W/m 10,5 km/h (2 Bft) 95,74 %
07.04.2017 13:40 13,2 C 15,0 C 13,9 C 70 % 0 lf 1024,5 hPa 0,0 l/m 2 min 0 min 442 W/m 10,5 km/h (2 Bft) 95,74 %
07.04.2017 13:42 13,2 C 15,0 C 13,9 C 70 % 0 lf 1024,4 hPa 0,0 l/m 2 min 0 min 448 W/m 6,3 km/h (2 Bft) 97,83 %
07.04.2017 13:44 13,2 C 15,0 C 13,9 C 70 % 0 lf 1024,4 hPa 0,0 l/m 2 min 0 min 448 W/m 8,4 km/h (2 Bft) 97,87 %
07.04.2017 13:46 13,2 C 14,4 C 13,9 C 70 % 0 lf 1024,3 hPa 0,0 l/m 2 min 0 min 432 W/m 14,6 km/h (3 Bft) 97,87 %
07.04.2017 13:48 13,2 C 15,0 C 13,9 C 70 % 0 lf 1024,3 hPa 0,0 l/m 2 min 0 min 429 W/m 10,5 km/h (2 Bft) 95,74 %
07.04.2017 13:50 13,2 C 14,4 C 13,9 C 70 % 0 lf 1024,3 hPa 0,0 l/m 2 min 0 min 436 W/m 10,5 km/h (2 Bft) 95,74 %
07.04.2017 13:52 13,1 C 14,4 C 13,9 C 71 % 0 lf 1024,2 hPa 0,0 l/m 2 min 0 min 443 W/m 10,5 km/h (2 Bft) 95,74 %
07.04.2017 13:54 13,1 C 14,4 C 13,9 C 71 % 0 lf 1024,2 hPa 0,0 l/m 2 min 0 min 440 W/m 12,6 km/h (3 Bft) 97,83 %
07.04.2017 13:56 13,1 C 15,0 C 13,9 C 71 % 0 lf 1024,2 hPa 0,0 l/m 2 min 0 min 464 W/m 14,6 km/h (3 Bft) 95,74 %
07.04.2017 13:58 13,1 C 15,0 C 13,9 C 71 % 0 lf 1024,2 hPa 0,0 l/m 2 min 0 min 479 W/m 10,5 km/h (2 Bft) 97,87 %
07.04.2017 14:00 13,1 C 15,0 C 13,9 C 71 % 0 lf 1024,2 hPa 0,0 l/m 2 min 0 min 462 W/m 10,5 km/h (2 Bft) 95,74 %
07.04.2017 14:06 13,1 C 15,0 C 13,9 C 71 % 0 lf 1024,1 hPa 0,0 l/m 5 min 0 min 432 W/m 8,4 km/h (2 Bft) 93,33 %
07.04.2017 14:08 13,1 C 15,0 C 13,9 C 71 % 0 lf 1024,1 hPa 0,0 l/m 2 min 0 min 408 W/m 12,6 km/h (3 Bft) 95,74 %
07.04.2017 14:10 13,1 C 15,0 C 13,9 C 71 % 0 lf 1024,2 hPa 0,0 l/m 2 min 0 min 411 W/m 12,6 km/h (3 Bft) 95,74 %
07.04.2017 14:12 13,1 C 15,0 C 13,9 C 71 % 0 lf 1024,2 hPa 0,0 l/m 2 min 0 min 432 W/m 8,4 km/h (2 Bft) 95,65 %
07.04.2017 14:14 13,1 C 15,0 C 13,9 C 71 % 0 lf 1024,2 hPa 0,0 l/m 2 min 0 min 437 W/m 12,6 km/h (3 Bft) 95,74 %
07.04.2017 14:16 13,1 C 15,0 C 13,9 C 71 % 0 lf 1024,2 hPa 0,0 l/m 2 min 0 min 448 W/m 10,5 km/h (2 Bft) 95,74 %
07.04.2017 14:18 13,1 C 15,0 C 13,9 C 71 % 0 lf 1024,2 hPa 0,0 l/m 2 min 0 min 458 W/m 12,6 km/h (3 Bft) 93,62 %
07.04.2017 14:20 13,1 C 15,0 C 13,9 C 71 % 0 lf 1024,2 hPa 0,0 l/m 2 min 0 min 463 W/m 12,6 km/h (3 Bft) 93,10 %
07.04.2017 14:22 13,1 C 15,0 C 13,9 C 71 % 0 lf 1024,2 hPa 0,0 l/m 2 min 0 min 445 W/m 12,6 km/h (3 Bft) 94,29 %
07.04.2017 14:24 13,1 C 15,0 C 13,9 C 71 % 0 lf 1024,1 hPa 0,0 l/m 2 min 0 min 422 W/m 10,5 km/h (2 Bft) 95,74 %
07.04.2017 14:26 13,1 C 15,0 C 13,3 C 71 % 0 lf 1024,1 hPa 0,0 l/m 2 min 0 min 418 W/m 10,5 km/h (2 Bft) 93,62 %
07.04.2017 14:28 13,1 C 15,0 C 13,3 C 71 % 0 lf 1024,1 hPa 0,0 l/m 2 min 0 min 422 W/m 10,5 km/h (2 Bft) 95,74 %
07.04.2017 14:30 13,1 C 14,4 C 13,3 C 71 % 0 lf 1024,1 hPa 0,0 l/m 2 min 0 min 406 W/m 12,6 km/h (3 Bft) 95,74 %
07.04.2017 14:32 13,1 C 14,4 C 12,8 C 71 % 0 lf 1024,1 hPa 0,0 l/m 2 min 0 min 388 W/m 14,6 km/h (3 Bft) 95,74 %
07.04.2017 14:34 13,0 C 14,4 C 12,8 C 71 % 0 lf 1024,1 hPa 0,0 l/m 2 min 0 min 378 W/m 10,5 km/h (2 Bft) 95,74 %
07.04.2017 14:36 13,0 C 13,9 C 12,2 C 72 % 0 lf 1024,2 hPa 0,0 l/m 2 min 0 min 363 W/m 18,8 km/h (3 Bft) 95,65 %
07.04.2017 14:38 12,9 C 13,9 C 12,2 C 72 % 0 lf 1024,2 hPa 0,0 l/m 2 min 0 min 360 W/m 14,6 km/h (3 Bft) 93,62 %
07.04.2017 14:40 12,9 C 13,3 C 12,2 C 72 % 0 lf 1024,2 hPa 0,0 l/m 2 min 0 min 385 W/m 18,8 km/h (3 Bft) 93,62 %
07.04.2017 14:42 12,9 C 13,9 C 12,8 C 72 % 0 lf 1024,1 hPa 0,0 l/m 2 min 0 min 457 W/m 12,6 km/h (3 Bft) 95,74 %
07.04.2017 14:44 12,8 C 13,9 C 13,3 C 73 % 0 lf 1024,1 hPa 0,0 l/m 2 min 0 min 494 W/m 14,6 km/h (3 Bft) 95,74 %
07.04.2017 14:46 12,8 C 14,4 C 13,3 C 73 % 0 lf 1024,1 hPa 0,0 l/m 2 min 0 min 486 W/m 18,8 km/h (3 Bft) 95,65 %
07.04.2017 14:48 12,8 C 14,4 C 13,3 C 73 % 0 lf 1024,2 hPa 0,0 l/m 2 min 0 min 471 W/m 14,6 km/h (3 Bft) 93,62 %
07.04.2017 14:50 12,8 C 14,4 C 13,3 C 74 % 0 lf 1024,1 hPa 0,0 l/m 2 min 0 min 474 W/m 20,9 km/h (4 Bft) 96,61 %
07.04.2017 14:52 12,8 C 14,4 C 13,3 C 74 % 0 lf 1024,1 hPa 0,0 l/m 2 min 0 min 490 W/m 14,6 km/h (3 Bft) 100,00 %
07.04.2017 14:54 12,8 C 14,4 C 13,3 C 74 % 0 lf 1024,0 hPa 0,0 l/m 2 min 0 min 501 W/m 14,6 km/h (3 Bft) 95,74 %
07.04.2017 14:56 12,7 C 15,0 C 13,9 C 74 % 0 lf 1024,0 hPa 0,0 l/m 2 min 0 min 531 W/m 10,5 km/h (2 Bft) 97,87 %
07.04.2017 14:58 12,8 C 15,0 C 14,4 C 75 % 0 lf 1024,0 hPa 0,0 l/m 2 min 0 min 548 W/m 14,6 km/h (3 Bft) 100,00 %
07.04.2017 15:00 12,8 C 15,6 C 13,9 C 74 % 0 lf 1024,0 hPa 0,0 l/m 2 min 0 min 569 W/m 12,6 km/h (3 Bft) 95,74 %
07.04.2017 15:02 12,8 C 15,6 C 14,4 C 74 % 0 lf 1024,0 hPa 0,0 l/m 2 min 0 min 564 W/m 12,6 km/h (3 Bft) 100,00 %
07.04.2017 15:04 12,8 C 15,6 C 14,4 C 75 % 0 lf 1023,9 hPa 0,0 l/m 2 min 0 min 560 W/m 16,7 km/h (3 Bft) 97,87 %
07.04.2017 15:06 12,8 C 15,6 C 14,4 C 75 % 0 lf 1023,9 hPa 0,0 l/m 2 min 0 min 552 W/m 14,6 km/h (3 Bft) 97,87 %
07.04.2017 15:08 12,9 C 15,6 C 14,4 C 75 % 0 lf 1023,9 hPa 0,0 l/m 2 min 0 min 534 W/m 16,7 km/h (3 Bft) 100,00 %
07.04.2017 15:10 12,9 C 15,6 C 14,4 C 75 % 0 lf 1023,9 hPa 0,0 l/m 2 min 0 min 534 W/m 14,6 km/h (3 Bft) 97,83 %
07.04.2017 15:12 12,9 C 15,6 C 14,4 C 74 % 0 lf 1023,9 hPa 0,0 l/m 2 min 0 min 533 W/m 14,6 km/h (3 Bft) 97,87 %
07.04.2017 15:14 12,9 C 16,1 C 15,0 C 75 % 0 lf 1023,8 hPa 0,0 l/m 2 min 0 min 544 W/m 12,6 km/h (3 Bft) 95,74 %
07.04.2017 15:16 13,0 C 16,1 C 15,0 C 74 % 0 lf 1023,8 hPa 0,0 l/m 2 min 0 min 537 W/m 10,5 km/h (2 Bft) 97,87 %
07.04.2017 15:18 13,0 C 16,1 C 14,4 C 74 % 0 lf 1023,8 hPa 0,0 l/m 2 min 0 min 510 W/m 16,7 km/h (3 Bft) 100,00 %
07.04.2017 15:20 13,1 C 16,1 C 14,4 C 74 % 0 lf 1023,8 hPa 0,0 l/m 2 min 0 min 490 W/m 12,6 km/h (3 Bft) 100,00 %
07.04.2017 15:22 13,1 C 16,1 C 14,4 C 74 % 0 lf 1023,8 hPa 0,0 l/m 2 min 0 min 469 W/m 14,6 km/h (3 Bft) 97,83 %
07.04.2017 15:24 13,1 C 15,6 C 14,4 C 74 % 0 lf 1023,8 hPa 0,0 l/m 2 min 0 min 461 W/m 14,6 km/h (3 Bft) 97,87 %
07.04.2017 15:26 13,1 C 15,6 C 13,9 C 74 % 0 lf 1023,8 hPa 0,0 l/m 2 min 0 min 462 W/m 16,7 km/h (3 Bft) 95,74 %
07.04.2017 15:28 13,1 C 15,0 C 13,9 C 73 % 0 lf 1023,8 hPa 0,0 l/m 2 min 0 min 469 W/m 18,8 km/h (3 Bft) 95,74 %
07.04.2017 15:30 13,1 C 15,0 C 13,9 C 73 % 0 lf 1023,8 hPa 0,0 l/m 2 min 0 min 483 W/m 14,6 km/h (3 Bft) 93,62 %
07.04.2017 15:32 13,1 C 15,6 C 14,4 C 74 % 0 lf 1023,8 hPa 0,0 l/m 2 min 0 min 486 W/m 10,5 km/h (2 Bft) 95,74 %
07.04.2017 15:34 13,2 C 15,6 C 14,4 C 73 % 0 lf 1023,8 hPa 0,0 l/m 2 min 0 min 489 W/m 10,5 km/h (2 Bft) 95,65 %
07.04.2017 15:36 13,2 C 15,6 C 14,4 C 73 % 0 lf 1023,7 hPa 0,0 l/m 2 min 0 min 510 W/m 12,6 km/h (3 Bft) 95,74 %
07.04.2017 15:38 13,2 C 15,6 C 14,4 C 73 % 0 lf 1023,7 hPa 0,0 l/m 2 min 0 min 523 W/m 14,6 km/h (3 Bft) 95,74 %
07.04.2017 15:40 13,2 C 15,6 C 14,4 C 73 % 0 lf 1023,7 hPa 0,0 l/m 2 min 0 min 536 W/m 18,8 km/h (3 Bft) 95,74 %
07.04.2017 15:42 13,2 C 15,6 C 14,4 C 72 % 0 lf 1023,8 hPa 0,0 l/m 2 min 0 min 527 W/m 10,5 km/h (2 Bft) 95,74 %
07.04.2017 15:44 13,2 C 16,1 C 15,0 C 73 % 0 lf 1023,8 hPa 0,0 l/m 2 min 0 min 519 W/m 8,4 km/h (2 Bft) 95,74 %
07.04.2017 15:46 13,2 C 16,1 C 15,0 C 73 % 0 lf 1023,8 hPa 0,0 l/m 2 min 0 min 517 W/m 8,4 km/h (2 Bft) 95,65 %
07.04.2017 15:48 13,2 C 16,1 C 14,4 C 73 % 0 lf 1023,8 hPa 0,0 l/m 2 min 0 min 488 W/m 8,4 km/h (2 Bft) 95,74 %
07.04.2017 15:50 13,2 C 16,1 C 13,9 C 72 % 0 lf 1023,8 hPa 0,0 l/m 2 min 0 min 456 W/m 10,5 km/h (2 Bft) 95,74 %
07.04.2017 15:52 13,2 C 15,6 C 13,9 C 72 % 0 lf 1023,8 hPa 0,0 l/m 2 min 0 min 437 W/m 12,6 km/h (3 Bft) 92,31 %
07.04.2017 15:54 13,2 C 15,0 C 13,3 C 72 % 0 lf 1023,7 hPa 0,0 l/m 2 min 0 min 428 W/m 12,6 km/h (3 Bft) 93,62 %
07.04.2017 15:56 13,2 C 15,0 C 13,3 C 72 % 0 lf 1023,8 hPa 0,0 l/m 2 min 0 min 424 W/m 14,6 km/h (3 Bft) 95,74 %
07.04.2017 15:58 13,2 C 15,0 C 13,3 C 71 % 0 lf 1023,7 hPa 0,0 l/m 2 min 0 min 425 W/m 12,6 km/h (3 Bft) 95,74 %
07.04.2017 16:00 13,2 C 14,4 C 13,3 C 71 % 0 lf 1023,7 hPa 0,0 l/m 2 min 0 min 430 W/m 14,6 km/h (3 Bft) 100,00 %
07.04.2017 16:02 13,2 C 14,4 C 13,3 C 71 % 0 lf 1023,6 hPa 0,0 l/m 2 min 0 min 441 W/m 12,6 km/h (3 Bft) 94,83 %
07.04.2017 16:04 13,2 C 14,4 C 13,3 C 71 % 0 lf 1023,6 hPa 0,0 l/m 2 min 0 min 451 W/m 20,9 km/h (4 Bft) 91,49 %
07.04.2017 16:06 13,1 C 15,0 C 13,9 C 71 % 0 lf 1023,7 hPa 0,0 l/m 2 min 0 min 461 W/m 10,5 km/h (2 Bft) 94,29 %
07.04.2017 16:08 13,2 C 15,0 C 13,9 C 71 % 0 lf 1023,6 hPa 0,0 l/m 2 min 0 min 468 W/m 12,6 km/h (3 Bft) 96,61 %
07.04.2017 16:10 13,2 C 15,0 C 13,9 C 70 % 0 lf 1023,6 hPa 0,0 l/m 2 min 0 min 472 W/m 14,6 km/h (3 Bft) 93,62 %
07.04.2017 16:12 13,2 C 15,0 C 13,9 C 70 % 0 lf 1023,6 hPa 0,0 l/m 2 min 0 min 471 W/m 12,6 km/h (3 Bft) 97,87 %
07.04.2017 16:14 13,2 C 15,0 C 14,4 C 70 % 0 lf 1023,6 hPa 0,0 l/m 2 min 0 min 474 W/m 14,6 km/h (3 Bft) 97,83 %
07.04.2017 16:16 13,2 C 15,0 C 13,9 C 70 % 0 lf 1023,6 hPa 0,0 l/m 2 min 0 min 466 W/m 18,8 km/h (3 Bft) 97,87 %
07.04.2017 16:18 13,2 C 14,4 C 13,9 C 70 % 0 lf 1023,6 hPa 0,0 l/m 2 min 0 min 459 W/m 16,7 km/h (3 Bft) 97,87 %
07.04.2017 16:20 13,2 C 15,0 C 13,9 C 70 % 0 lf 1023,6 hPa 0,0 l/m 2 min 0 min 447 W/m 14,6 km/h (3 Bft) 97,87 %
07.04.2017 16:22 13,2 C 15,0 C 13,9 C 70 % 0 lf 1023,6 hPa 0,0 l/m 2 min 0 min 441 W/m 12,6 km/h (3 Bft) 93,02 %
07.04.2017 16:24 13,2 C 14,4 C 13,9 C 70 % 0 lf 1023,6 hPa 0,0 l/m 2 min 0 min 433 W/m 12,6 km/h (3 Bft) 97,87 %
07.04.2017 16:26 13,2 C 14,4 C 13,3 C 69 % 0 lf 1023,5 hPa 0,0 l/m 2 min 0 min 435 W/m 16,7 km/h (3 Bft) 97,87 %
07.04.2017 16:28 13,2 C 15,0 C 13,9 C 70 % 0 lf 1023,5 hPa 0,0 l/m 2 min 0 min 430 W/m 10,5 km/h (2 Bft) 97,87 %
07.04.2017 16:30 13,2 C 15,0 C 13,9 C 70 % 0 lf 1023,5 hPa 0,0 l/m 2 min 0 min 443 W/m 12,6 km/h (3 Bft) 97,87 %
07.04.2017 16:32 13,2 C 15,0 C 14,4 C 70 % 0 lf 1023,5 hPa 0,0 l/m 2 min 0 min 458 W/m 10,5 km/h (2 Bft) 97,83 %
07.04.2017 16:34 13,3 C 15,6 C 14,4 C 71 % 0 lf 1023,5 hPa 0,0 l/m 2 min 0 min 481 W/m 12,6 km/h (3 Bft) 100,00 %
07.04.2017 16:36 13,3 C 15,6 C 15,0 C 70 % 0 lf 1023,4 hPa 0,0 l/m 2 min 0 min 492 W/m 12,6 km/h (3 Bft) 100,00 %
07.04.2017 16:38 13,3 C 15,6 C 15,0 C 71 % 0 lf 1023,4 hPa 0,0 l/m 2 min 0 min 499 W/m 8,4 km/h (2 Bft) 97,87 %
07.04.2017 16:40 13,4 C 16,1 C 15,6 C 71 % 0 lf 1023,4 hPa 0,0 l/m 2 min 0 min 500 W/m 12,6 km/h (3 Bft) 93,62 %
07.04.2017 16:42 13,4 C 16,1 C 15,6 C 71 % 0 lf 1023,4 hPa 0,0 l/m 2 min 0 min 505 W/m 10,5 km/h (2 Bft) 100,00 %
07.04.2017 16:44 13,6 C 16,1 C 15,6 C 71 % 0 lf 1023,4 hPa 0,0 l/m 2 min 0 min 496 W/m 14,6 km/h (3 Bft) 97,87 %
07.04.2017 16:46 13,6 C 16,7 C 15,6 C 71 % 0 lf 1023,4 hPa 0,0 l/m 2 min 0 min 482 W/m 10,5 km/h (2 Bft) 100,00 %
07.04.2017 16:48 13,7 C 16,1 C 15,6 C 71 % 0 lf 1023,4 hPa 0,0 l/m 2 min 0 min 466 W/m 6,3 km/h (2 Bft) 97,87 %
07.04.2017 16:50 13,7 C 16,1 C 15,0 C 70 % 0 lf 1023,4 hPa 0,0 l/m 2 min 0 min 453 W/m 14,6 km/h (3 Bft) 100,00 %
07.04.2017 16:52 13,7 C 16,1 C 15,0 C 70 % 0 lf 1023,5 hPa 0,0 l/m 2 min 0 min 448 W/m 14,6 km/h (3 Bft) 97,87 %
07.04.2017 16:54 13,8 C 16,1 C 15,0 C 70 % 0 lf 1023,4 hPa 0,0 l/m 2 min 0 min 445 W/m 10,5 km/h (2 Bft) 95,74 %
07.04.2017 16:56 13,8 C 16,1 C 15,0 C 70 % 0 lf 1023,4 hPa 0,0 l/m 2 min 0 min 449 W/m 14,6 km/h (3 Bft) 93,48 %
07.04.2017 16:58 13,8 C 15,6 C 15,0 C 69 % 0 lf 1023,4 hPa 0,0 l/m 2 min 0 min 454 W/m 12,6 km/h (3 Bft) 97,87 %
07.04.2017 17:00 13,9 C 15,6 C 15,0 C 69 % 0 lf 1023,4 hPa 0,0 l/m 2 min 0 min 452 W/m 12,6 km/h (3 Bft) 97,87 %
07.04.2017 17:02 13,9 C 15,6 C 14,4 C 69 % 0 lf 1023,4 hPa 0,0 l/m 2 min 0 min 445 W/m 14,6 km/h (3 Bft) 93,62 %
07.04.2017 17:04 13,9 C 15,6 C 14,4 C 69 % 0 lf 1023,3 hPa 0,0 l/m 2 min 0 min 450 W/m 10,5 km/h (2 Bft) 95,74 %
07.04.2017 17:06 13,9 C 15,6 C 15,0 C 69 % 0 lf 1023,3 hPa 0,0 l/m 2 min 0 min 464 W/m 14,6 km/h (3 Bft) 93,48 %
07.04.2017 17:08 13,9 C 16,1 C 15,0 C 69 % 0 lf 1023,3 hPa 0,0 l/m 2 min 0 min 477 W/m 6,3 km/h (2 Bft) 95,74 %
07.04.2017 17:10 13,9 C 16,1 C 15,0 C 69 % 0 lf 1023,4 hPa 0,0 l/m 2 min 0 min 470 W/m 10,5 km/h (2 Bft) 93,62 %
07.04.2017 17:12 13,9 C 16,1 C 15,0 C 70 % 0 lf 1023,4 hPa 0,0 l/m 2 min 0 min 466 W/m 12,6 km/h (3 Bft) 91,49 %
07.04.2017 17:14 14,0 C 16,1 C 15,0 C 70 % 0 lf 1023,4 hPa 0,0 l/m 2 min 0 min 479 W/m 8,4 km/h (2 Bft) 93,62 %
07.04.2017 17:16 14,0 C 16,1 C 15,0 C 69 % 0 lf 1023,3 hPa 0,0 l/m 2 min 0 min 493 W/m 8,4 km/h (2 Bft) 95,74 %
07.04.2017 17:18 14,1 C 16,1 C 15,0 C 69 % 0 lf 1023,3 hPa 0,0 l/m 2 min 0 min 486 W/m 6,3 km/h (2 Bft) 95,65 %
07.04.2017 17:20 14,1 C 16,1 C 15,0 C 69 % 0 lf 1023,3 hPa 0,0 l/m 2 min 0 min 471 W/m 10,5 km/h (2 Bft) 95,74 %
07.04.2017 17:22 14,1 C 16,1 C 15,0 C 69 % 0 lf 1023,2 hPa 0,0 l/m 2 min 0 min 465 W/m 6,3 km/h (2 Bft) 95,74 %
07.04.2017 17:24 14,2 C 16,1 C 15,0 C 69 % 0 lf 1023,3 hPa 0,0 l/m 2 min 0 min 447 W/m 10,5 km/h (2 Bft) 93,62 %
07.04.2017 17:26 14,2 C 16,1 C 15,0 C 68 % 0 lf 1023,2 hPa 0,0 l/m 2 min 0 min 432 W/m 10,5 km/h (2 Bft) 93,62 %
07.04.2017 17:28 14,2 C 15,6 C 14,4 C 67 % 0 lf 1023,3 hPa 0,0 l/m 2 min 0 min 434 W/m 8,4 km/h (2 Bft) 93,62 %
07.04.2017 17:30 14,2 C 15,6 C 14,4 C 68 % 0 lf 1023,3 hPa 0,0 l/m 2 min 0 min 427 W/m 14,6 km/h (3 Bft) 93,48 %
07.04.2017 17:32 14,2 C 15,6 C 14,4 C 68 % 0 lf 1023,3 hPa 0,0 l/m 2 min 0 min 416 W/m 8,4 km/h (2 Bft) 91,49 %
07.04.2017 17:34 14,2 C 15,6 C 14,4 C 67 % 0 lf 1023,3 hPa 0,0 l/m 2 min 0 min 407 W/m 10,5 km/h (2 Bft) 93,62 %
07.04.2017 17:36 14,2 C 15,6 C 14,4 C 67 % 0 lf 1023,3 hPa 0,0 l/m 2 min 0 min 406 W/m 12,6 km/h (3 Bft) 93,62 %
07.04.2017 17:38 14,2 C 15,6 C 14,4 C 67 % 0 lf 1023,3 hPa 0,0 l/m 2 min 0 min 401 W/m 14,6 km/h (3 Bft) 95,74 %
07.04.2017 17:40 14,2 C 15,6 C 13,9 C 68 % 0 lf 1023,3 hPa 0,0 l/m 2 min 0 min 406 W/m 16,7 km/h (3 Bft) 93,62 %
07.04.2017 17:42 14,1 C 15,6 C 14,4 C 68 % 0 lf 1023,3 hPa 0,0 l/m 2 min 0 min 407 W/m 8,4 km/h (2 Bft) 95,65 %
07.04.2017 17:44 14,1 C 15,6 C 14,4 C 68 % 0 lf 1023,3 hPa 0,0 l/m 2 min 0 min 409 W/m 14,6 km/h (3 Bft) 97,87 %
07.04.2017 17:46 14,1 C 15,0 C 14,4 C 69 % 0 lf 1023,2 hPa 0,0 l/m 2 min 0 min 404 W/m 12,6 km/h (3 Bft) 93,62 %
07.04.2017 17:48 14,1 C 15,0 C 13,9 C 68 % 0 lf 1023,3 hPa 0,0 l/m 2 min 0 min 410 W/m 8,4 km/h (2 Bft) 87,23 %
07.04.2017 17:50 14,1 C 15,0 C 13,9 C 68 % 0 lf 1023,3 hPa 0,0 l/m 2 min 0 min 394 W/m 10,5 km/h (2 Bft) 95,74 %
07.04.2017 17:52 14,0 C 14,4 C 13,9 C 69 % 0 lf 1023,2 hPa 0,0 l/m 2 min 0 min 395 W/m 10,5 km/h (2 Bft) 95,74 %
07.04.2017 17:54 14,0 C 15,0 C 13,9 C 69 % 0 lf 1023,2 hPa 0,0 l/m 2 min 0 min 393 W/m 14,6 km/h (3 Bft) 95,65 %
07.04.2017 17:56 14,0 C 15,0 C 13,9 C 69 % 0 lf 1023,2 hPa 0,0 l/m 2 min 0 min 392 W/m 10,5 km/h (2 Bft) 95,74 %
07.04.2017 17:58 13,9 C 15,0 C 13,9 C 69 % 0 lf 1023,2 hPa 0,0 l/m 2 min 0 min 386 W/m 10,5 km/h (2 Bft) 95,74 %
07.04.2017 18:00 13,9 C 15,0 C 13,9 C 69 % 0 lf 1023,2 hPa 0,0 l/m 2 min 0 min 387 W/m 8,4 km/h (2 Bft) 95,74 %
07.04.2017 18:02 13,9 C 15,0 C 13,9 C 69 % 0 lf 1023,2 hPa 0,0 l/m 2 min 0 min 382 W/m 10,5 km/h (2 Bft) 100,00 %
07.04.2017 18:04 13,9 C 15,0 C 13,9 C 69 % 0 lf 1023,3 hPa 0,0 l/m 2 min 0 min 374 W/m 12,6 km/h (3 Bft) 97,83 %
07.04.2017 18:06 13,9 C 15,0 C 13,9 C 69 % 0 lf 1023,3 hPa 0,0 l/m 2 min 0 min 365 W/m 6,3 km/h (2 Bft) 97,87 %
07.04.2017 18:08 13,9 C 15,0 C 13,3 C 69 % 0 lf 1023,3 hPa 0,0 l/m 2 min 0 min 361 W/m 8,4 km/h (2 Bft) 97,92 %
07.04.2017 18:10 13,9 C 15,0 C 13,3 C 69 % 0 lf 1023,3 hPa 0,0 l/m 2 min 0 min 367 W/m 10,5 km/h (2 Bft) 100,00 %
07.04.2017 18:12 13,9 C 14,4 C 13,3 C 69 % 0 lf 1023,3 hPa 0,0 l/m 2 min 0 min 360 W/m 8,4 km/h (2 Bft) 97,87 %
07.04.2017 18:14 13,8 C 14,4 C 13,3 C 69 % 0 lf 1023,3 hPa 0,0 l/m 2 min 0 min 361 W/m 4,2 km/h (1 Bft) 100,00 %
07.04.2017 18:16 13,8 C 14,4 C 13,3 C 69 % 0 lf 1023,3 hPa 0,0 l/m 2 min 0 min 349 W/m 8,4 km/h (2 Bft) 97,83 %
07.04.2017 18:18 13,8 C 14,4 C 13,3 C 69 % 0 lf 1023,3 hPa 0,0 l/m 2 min 0 min 338 W/m 6,3 km/h (2 Bft) 100,00 %
07.04.2017 18:20 13,8 C 14,4 C 13,3 C 69 % 0 lf 1023,3 hPa 0,0 l/m 2 min 0 min 335 W/m 8,4 km/h (2 Bft) 100,00 %
07.04.2017 18:22 13,8 C 14,4 C 12,8 C 70 % 0 lf 1023,4 hPa 0,0 l/m 2 min 0 min 343 W/m 8,4 km/h (2 Bft) 100,00 %
07.04.2017 18:24 13,8 C 14,4 C 12,8 C 69 % 0 lf 1023,3 hPa 0,0 l/m 2 min 0 min 338 W/m 8,4 km/h (2 Bft) 100,00 %
07.04.2017 18:26 13,8 C 14,4 C 12,8 C 69 % 0 lf 1023,3 hPa 0,0 l/m 2 min 0 min 334 W/m 8,4 km/h (2 Bft) 97,87 %
07.04.2017 18:28 13,8 C 14,4 C 12,8 C 69 % 0 lf 1023,3 hPa 0,0 l/m 2 min 0 min 345 W/m 8,4 km/h (2 Bft) 97,83 %
07.04.2017 18:30 13,7 C 14,4 C 12,8 C 70 % 0 lf 1023,3 hPa 0,0 l/m 2 min 0 min 332 W/m 8,4 km/h (2 Bft) 100,00 %
07.04.2017 18:32 13,7 C 14,4 C 12,8 C 70 % 0 lf 1023,3 hPa 0,0 l/m 2 min 0 min 336 W/m 10,5 km/h (2 Bft) 100,00 %
07.04.2017 18:34 13,7 C 14,4 C 12,8 C 70 % 0 lf 1023,3 hPa 0,0 l/m 2 min 0 min 331 W/m 6,3 km/h (2 Bft) 100,00 %
07.04.2017 18:36 13,7 C 13,9 C 12,8 C 70 % 0 lf 1023,3 hPa 0,0 l/m 2 min 0 min 328 W/m 4,2 km/h (1 Bft) 97,87 %
07.04.2017 18:38 13,7 C 13,9 C 12,8 C 70 % 0 lf 1023,3 hPa 0,0 l/m 2 min 0 min 333 W/m 12,6 km/h (3 Bft) 95,74 %
07.04.2017 18:40 13,7 C 13,9 C 12,8 C 70 % 0 lf 1023,3 hPa 0,0 l/m 2 min 0 min 328 W/m 6,3 km/h (2 Bft) 97,87 %
07.04.2017 18:42 13,7 C 13,9 C 12,8 C 70 % 0 lf 1023,3 hPa 0,0 l/m 2 min 0 min 330 W/m 8,4 km/h (2 Bft) 97,83 %
07.04.2017 18:44 13,7 C 13,9 C 12,8 C 71 % 0 lf 1023,3 hPa 0,0 l/m 2 min 0 min 329 W/m 4,2 km/h (1 Bft) 100,00 %
07.04.2017 18:46 13,6 C 13,9 C 12,8 C 71 % 0 lf 1023,3 hPa 0,0 l/m 2 min 0 min 244 W/m 6,3 km/h (2 Bft) 100,00 %
07.04.2017 18:48 13,6 C 13,9 C 12,8 C 71 % 0 lf 1023,3 hPa 0,0 l/m 2 min 0 min 239 W/m 4,2 km/h (1 Bft) 100,00 %
07.04.2017 18:50 13,6 C 13,9 C 12,8 C 71 % 0 lf 1023,3 hPa 0,0 l/m 2 min 0 min 233 W/m 6,3 km/h (2 Bft) 100,00 %
07.04.2017 18:52 13,6 C 13,9 C 12,8 C 71 % 0 lf 1023,3 hPa 0,0 l/m 2 min 0 min 227 W/m 8,4 km/h (2 Bft) 100,00 %
07.04.2017 18:54 13,6 C 13,9 C 12,8 C 71 % 0 lf 1023,3 hPa 0,0 l/m 2 min 0 min 222 W/m 6,3 km/h (2 Bft) 100,00 %
07.04.2017 18:56 13,6 C 13,9 C 12,8 C 71 % 0 lf 1023,3 hPa 0,0 l/m 2 min 0 min 216 W/m 8,4 km/h (2 Bft) 100,00 %
07.04.2017 18:58 13,6 C 13,9 C 12,2 C 72 % 0 lf 1023,3 hPa 0,0 l/m 2 min 0 min 210 W/m 4,2 km/h (1 Bft) 97,87 %
07.04.2017 19:00 13,6 C 13,9 C 12,2 C 72 % 0 lf 1023,3 hPa 0,0 l/m 2 min 0 min 205 W/m 6,3 km/h (2 Bft) 97,87 %
07.04.2017 19:02 13,6 C 13,9 C 12,2 C 72 % 0 lf 1023,3 hPa 0,0 l/m 2 min 0 min 199 W/m 8,4 km/h (2 Bft) 97,87 %
07.04.2017 19:04 13,6 C 13,9 C 12,2 C 72 % 0 lf 1023,3 hPa 0,0 l/m 2 min 0 min 193 W/m 2,1 km/h (1 Bft) 97,83 %
07.04.2017 19:06 13,6 C 13,9 C 12,2 C 72 % 0 lf 1023,3 hPa 0,0 l/m 2 min 0 min 188 W/m 4,2 km/h (1 Bft) 97,87 %
07.04.2017 19:08 13,5 C 13,9 C 12,2 C 72 % 0 lf 1023,3 hPa 0,0 l/m 2 min 0 min 182 W/m 6,3 km/h (2 Bft) 95,74 %
07.04.2017 19:10 13,5 C 13,9 C 12,2 C 72 % 0 lf 1023,3 hPa 0,0 l/m 2 min 0 min 176 W/m 8,4 km/h (2 Bft) 95,74 %
07.04.2017 19:12 13,5 C 13,9 C 12,2 C 72 % 0 lf 1023,3 hPa 0,0 l/m 2 min 0 min 171 W/m 6,3 km/h (2 Bft) 95,74 %
07.04.2017 19:14 13,5 C 13,9 C 12,2 C 72 % 0 lf 1023,4 hPa 0,0 l/m 2 min 0 min 165 W/m 4,2 km/h (1 Bft) 95,74 %
07.04.2017 19:16 13,5 C 13,9 C 12,2 C 72 % 0 lf 1023,4 hPa 0,0 l/m 2 min 0 min 159 W/m 4,2 km/h (1 Bft) 95,65 %
07.04.2017 19:18 13,4 C 13,9 C 12,2 C 72 % 0 lf 1023,3 hPa 0,0 l/m 2 min 0 min 154 W/m 6,3 km/h (2 Bft) 97,87 %
07.04.2017 19:20 13,4 C 13,9 C 12,2 C 72 % 0 lf 1023,4 hPa 0,0 l/m 2 min 0 min 148 W/m 6,3 km/h (2 Bft) 91,49 %
07.04.2017 19:22 13,4 C 13,3 C 12,2 C 72 % 0 lf 1023,3 hPa 0,0 l/m 2 min 0 min 142 W/m 4,2 km/h (1 Bft) 95,74 %
07.04.2017 19:24 13,4 C 13,3 C 11,7 C 72 % 0 lf 1023,3 hPa 0,0 l/m 2 min 0 min 137 W/m 4,2 km/h (1 Bft) 93,62 %
07.04.2017 19:26 13,4 C 13,3 C 11,7 C 72 % 0 lf 1023,3 hPa 0,0 l/m 0 min 0 min 34 W/m 6,3 km/h (2 Bft) 95,65 %
07.04.2017 19:28 13,4 C 13,3 C 11,7 C 72 % 0 lf 1023,3 hPa 0,0 l/m 0 min 0 min 33 W/m 4,2 km/h (1 Bft) 91,49 %
07.04.2017 19:30 13,4 C 13,3 C 11,7 C 72 % 0 lf 1023,4 hPa 0,0 l/m 0 min 0 min 32 W/m 4,2 km/h (1 Bft) 95,74 %
07.04.2017 19:32 13,4 C 13,3 C 11,7 C 72 % 0 lf 1023,4 hPa 0,0 l/m 0 min 0 min 33 W/m 4,2 km/h (1 Bft) 91,49 %
07.04.2017 19:34 13,3 C 13,3 C 11,7 C 72 % 0 lf 1023,4 hPa 0,0 l/m 0 min 0 min 32 W/m 4,2 km/h (1 Bft) 95,74 %
07.04.2017 19:36 13,3 C 13,3 C 11,7 C 72 % 0 lf 1023,4 hPa 0,0 l/m 0 min 0 min 28 W/m 4,2 km/h (1 Bft) 91,49 %
07.04.2017 19:38 13,3 C 13,3 C 11,7 C 72 % 0 lf 1023,4 hPa 0,0 l/m 0 min 0 min 28 W/m 4,2 km/h (1 Bft) 91,30 %
07.04.2017 19:40 13,3 C 13,3 C 11,7 C 73 % 0 lf 1023,4 hPa 0,0 l/m 0 min 0 min 26 W/m 6,3 km/h (2 Bft) 93,62 %
07.04.2017 19:42 13,3 C 13,3 C 11,7 C 73 % 0 lf 1023,4 hPa 0,0 l/m 0 min 0 min 25 W/m 2,1 km/h (1 Bft) 93,62 %
07.04.2017 19:44 13,3 C 12,8 C 11,7 C 73 % 0 lf 1023,5 hPa 0,0 l/m 0 min 0 min 24 W/m 4,2 km/h (1 Bft) 93,62 %
07.04.2017 19:46 13,2 C 12,8 C 11,1 C 73 % 0 lf 1023,5 hPa 0,0 l/m 0 min 0 min 23 W/m 2,1 km/h (1 Bft) 82,98 %
07.04.2017 19:48 13,2 C 12,8 C 11,1 C 73 % 0 lf 1023,5 hPa 0,0 l/m 0 min 0 min 22 W/m 2,1 km/h (1 Bft) 93,62 %
07.04.2017 19:50 13,2 C 12,8 C 11,1 C 73 % 0 lf 1023,5 hPa 0,0 l/m 0 min 0 min 21 W/m 2,1 km/h (1 Bft) 84,78 %
07.04.2017 19:52 13,2 C 12,8 C 11,1 C 73 % 0 lf 1023,5 hPa 0,0 l/m 0 min 0 min 20 W/m 0,0 km/h (0 Bft) 93,62 %
07.04.2017 19:54 13,2 C 12,8 C 11,1 C 73 % 0 lf 1023,5 hPa 0,0 l/m 0 min 0 min 18 W/m 0,0 km/h (0 Bft) 93,62 %
07.04.2017 19:56 13,2 C 12,8 C 11,1 C 73 % 0 lf 1023,6 hPa 0,0 l/m 0 min 0 min 16 W/m 0,0 km/h (0 Bft) 93,62 %
07.04.2017 19:58 13,1 C 12,8 C 11,1 C 73 % 0 lf 1023,6 hPa 0,0 l/m 0 min 0 min 16 W/m 0,0 km/h (0 Bft) 93,62 %
07.04.2017 20:00 13,1 C 12,8 C 11,1 C 73 % 0 lf 1023,5 hPa 0,0 l/m 0 min 0 min 14 W/m 0,0 km/h (0 Bft) 93,62 %
07.04.2017 20:02 13,1 C 12,8 C 11,1 C 73 % 0 lf 1023,6 hPa 0,0 l/m 0 min 0 min 14 W/m 0,0 km/h (0 Bft) 97,83 %
07.04.2017 20:04 13,1 C 12,8 C 10,6 C 73 % 0 lf 1023,6 hPa 0,0 l/m 0 min 0 min 14 W/m 4,2 km/h (1 Bft) 95,74 %
07.04.2017 20:06 13,1 C 12,8 C 10,6 C 74 % 0 lf 1023,6 hPa 0,0 l/m 0 min 0 min 14 W/m 4,2 km/h (1 Bft) 91,49 %
07.04.2017 20:08 13,1 C 12,8 C 10,6 C 74 % 0 lf 1023,5 hPa 0,0 l/m 0 min 0 min 12 W/m 4,2 km/h (1 Bft) 93,62 %
07.04.2017 20:10 13,0 C 12,2 C 10,6 C 73 % 0 lf 1023,6 hPa 0,0 l/m 0 min 0 min 12 W/m 2,1 km/h (1 Bft) 95,74 %
07.04.2017 20:12 13,0 C 12,2 C 10,6 C 73 % 0 lf 1023,6 hPa 0,0 l/m 0 min 0 min 12 W/m 4,2 km/h (1 Bft) 95,74 %
07.04.2017 20:14 13,0 C 12,2 C 10,6 C 73 % 0 lf 1023,7 hPa 0,0 l/m 0 min 0 min 12 W/m 4,2 km/h (1 Bft) 93,48 %
07.04.2017 20:16 12,9 C 12,2 C 10,6 C 74 % 0 lf 1023,6 hPa 0,0 l/m 0 min 0 min 13 W/m 2,1 km/h (1 Bft) 95,74 %
07.04.2017 20:18 12,9 C 12,2 C 10,6 C 74 % 0 lf 1023,7 hPa 0,0 l/m 0 min 0 min 12 W/m 2,1 km/h (1 Bft) 95,74 %
07.04.2017 20:20 12,9 C 12,2 C 10,6 C 74 % 0 lf 1023,7 hPa 0,0 l/m 0 min 0 min 11 W/m 2,1 km/h (1 Bft) 95,74 %
07.04.2017 20:22 12,9 C 12,2 C 10,6 C 74 % 0 lf 1023,7 hPa 0,0 l/m 0 min 0 min 11 W/m 2,1 km/h (1 Bft) 95,74 %
07.04.2017 20:24 12,9 C 12,2 C 10,6 C 74 % 0 lf 1023,7 hPa 0,0 l/m 0 min 0 min 12 W/m 4,2 km/h (1 Bft) 97,83 %
07.04.2017 20:26 12,9 C 12,2 C 10,6 C 74 % 0 lf 1023,7 hPa 0,0 l/m 0 min 0 min 12 W/m 4,2 km/h (1 Bft) 93,62 %
07.04.2017 20:28 12,8 C 12,2 C 10,6 C 74 % 0 lf 1023,7 hPa 0,0 l/m 0 min 0 min 11 W/m 2,1 km/h (1 Bft) 97,87 %
07.04.2017 20:30 12,8 C 12,2 C 10,6 C 74 % 0 lf 1023,7 hPa 0,0 l/m 0 min 0 min 11 W/m 4,2 km/h (1 Bft) 95,74 %
07.04.2017 20:32 12,8 C 12,2 C 10,6 C 74 % 0 lf 1023,7 hPa 0,0 l/m 0 min 0 min 0 W/m 4,2 km/h (1 Bft) 95,74 %
07.04.2017 20:34 12,8 C 12,2 C 10,6 C 74 % 0 lf 1023,8 hPa 0,0 l/m 0 min 0 min 0 W/m 4,2 km/h (1 Bft) 95,74 %
07.04.2017 20:36 12,7 C 12,2 C 10,6 C 74 % 0 lf 1023,8 hPa 0,0 l/m 0 min 0 min 0 W/m 2,1 km/h (1 Bft) 93,48 %
07.04.2017 20:38 12,7 C 12,2 C 10,0 C 74 % 0 lf 1023,8 hPa 0,0 l/m 0 min 0 min 0 W/m 4,2 km/h (1 Bft) 97,87 %
07.04.2017 20:40 12,7 C 12,2 C 10,0 C 74 % 0 lf 1023,8 hPa 0,0 l/m 0 min 0 min 0 W/m 4,2 km/h (1 Bft) 97,87 %
07.04.2017 20:42 12,7 C 12,2 C 10,0 C 75 % 0 lf 1023,8 hPa 0,0 l/m 0 min 0 min 0 W/m 4,2 km/h (1 Bft) 97,87 %
07.04.2017 20:44 12,7 C 12,2 C 10,0 C 75 % 0 lf 1023,8 hPa 0,0 l/m 0 min 0 min 0 W/m 0,0 km/h (0 Bft) 97,87 %
07.04.2017 20:46 12,6 C 12,2 C 10,0 C 75 % 0 lf 1023,9 hPa 0,0 l/m 0 min 0 min 0 W/m 0,0 km/h (0 Bft) 95,74 %
07.04.2017 20:48 12,6 C 12,2 C 10,0 C 75 % 0 lf 1023,9 hPa 0,0 l/m 0 min 0 min 0 W/m 4,2 km/h (1 Bft) 95,65 %
07.04.2017 20:50 12,6 C 11,7 C 10,0 C 75 % 0 lf 1023,9 hPa 0,0 l/m 0 min 0 min 0 W/m 4,2 km/h (1 Bft) 97,87 %
07.04.2017 20:52 12,6 C 11,7 C 10,0 C 75 % 0 lf 1023,9 hPa 0,0 l/m 0 min 0 min 0 W/m 2,1 km/h (1 Bft) 95,74 %
07.04.2017 20:54 12,6 C 11,7 C 10,0 C 75 % 0 lf 1023,9 hPa 0,0 l/m 0 min 0 min 0 W/m 4,2 km/h (1 Bft) 95,74 %
07.04.2017 20:56 12,5 C 11,7 C 10,0 C 75 % 0 lf 1023,9 hPa 0,0 l/m 0 min 0 min 0 W/m 2,1 km/h (1 Bft) 95,74 %
07.04.2017 20:58 12,5 C 11,7 C 10,0 C 75 % 0 lf 1024,0 hPa 0,0 l/m 0 min 0 min 0 W/m 0,0 km/h (0 Bft) 100,00 %
07.04.2017 21:00 12,4 C 11,7 C 10,0 C 75 % 0 lf 1024,0 hPa 0,0 l/m 0 min 0 min 0 W/m 2,1 km/h (1 Bft) 100,00 %
07.04.2017 21:02 12,4 C 11,7 C 10,0 C 76 % 0 lf 1024,0 hPa 0,0 l/m 0 min 0 min 0 W/m 2,1 km/h (1 Bft) 97,87 %
07.04.2017 21:04 12,4 C 11,7 C 10,0 C 76 % 0 lf 1024,0 hPa 0,0 l/m 0 min 0 min 0 W/m 2,1 km/h (1 Bft) 97,87 %
07.04.2017 21:06 12,4 C 11,7 C 10,0 C 76 % 0 lf 1024,0 hPa 0,0 l/m 0 min 0 min 0 W/m 2,1 km/h (1 Bft) 97,87 %
07.04.2017 21:08 12,4 C 11,7 C 10,0 C 76 % 0 lf 1024,0 hPa 0,0 l/m 0 min 0 min 0 W/m 2,1 km/h (1 Bft) 100,00 %
07.04.2017 21:10 12,3 C 11,7 C 10,0 C 76 % 0 lf 1024,0 hPa 0,0 l/m 0 min 0 min 0 W/m 4,2 km/h (1 Bft) 97,87 %
07.04.2017 21:12 12,3 C 11,7 C 10,0 C 76 % 0 lf 1024,0 hPa 0,0 l/m 0 min 0 min 0 W/m 4,2 km/h (1 Bft) 100,00 %
07.04.2017 21:14 12,3 C 11,7 C 10,0 C 76 % 0 lf 1024,0 hPa 0,0 l/m 0 min 0 min 0 W/m 4,2 km/h (1 Bft) 100,00 %
07.04.2017 21:16 12,3 C 11,7 C 10,0 C 76 % 0 lf 1024,1 hPa 0,0 l/m 0 min 0 min 0 W/m 4,2 km/h (1 Bft) 93,62 %
07.04.2017 21:18 12,3 C 11,7 C 10,0 C 76 % 0 lf 1024,1 hPa 0,0 l/m 0 min 0 min 0 W/m 4,2 km/h (1 Bft) 97,87 %
07.04.2017 21:20 12,2 C 11,7 C 10,0 C 76 % 0 lf 1024,1 hPa 0,0 l/m 0 min 0 min 0 W/m 4,2 km/h (1 Bft) 97,87 %
07.04.2017 21:22 12,2 C 11,7 C 10,0 C 76 % 0 lf 1024,1 hPa 0,0 l/m 0 min 0 min 0 W/m 4,2 km/h (1 Bft) 91,49 %
07.04.2017 21:24 12,2 C 11,7 C 10,0 C 77 % 0 lf 1024,1 hPa 0,0 l/m 0 min 0 min 0 W/m 6,3 km/h (2 Bft) 95,65 %
07.04.2017 21:26 12,2 C 11,7 C 10,0 C 77 % 0 lf 1024,2 hPa 0,0 l/m 0 min 0 min 0 W/m 6,3 km/h (2 Bft) 97,87 %
07.04.2017 21:28 12,1 C 11,7 C 10,0 C 77 % 0 lf 1024,1 hPa 0,0 l/m 0 min 0 min 0 W/m 6,3 km/h (2 Bft) 95,74 %
07.04.2017 21:30 12,1 C 11,7 C 10,0 C 77 % 0 lf 1024,2 hPa 0,0 l/m 0 min 0 min 0 W/m 6,3 km/h (2 Bft) 97,87 %
07.04.2017 21:32 12,1 C 11,7 C 10,0 C 77 % 0 lf 1024,2 hPa 0,0 l/m 0 min 0 min 0 W/m 6,3 km/h (2 Bft) 95,74 %
07.04.2017 21:34 12,1 C 11,7 C 10,0 C 77 % 0 lf 1024,2 hPa 0,0 l/m 0 min 0 min 0 W/m 8,4 km/h (2 Bft) 95,74 %
07.04.2017 21:36 12,1 C 11,7 C 10,0 C 77 % 0 lf 1024,2 hPa 0,0 l/m 0 min 0 min 0 W/m 6,3 km/h (2 Bft) 97,83 %
07.04.2017 21:38 12,0 C 11,7 C 10,0 C 77 % 0 lf 1024,2 hPa 0,0 l/m 0 min 0 min 0 W/m 6,3 km/h (2 Bft) 100,00 %
07.04.2017 21:40 12,0 C 11,7 C 10,0 C 77 % 0 lf 1024,1 hPa 0,0 l/m 0 min 0 min 0 W/m 6,3 km/h (2 Bft) 97,87 %
07.04.2017 21:42 12,0 C 11,7 C 10,0 C 77 % 0 lf 1024,2 hPa 0,0 l/m 0 min 0 min 0 W/m 6,3 km/h (2 Bft) 97,87 %
07.04.2017 21:44 11,9 C 11,7 C 10,0 C 78 % 0 lf 1024,2 hPa 0,0 l/m 0 min 0 min 0 W/m 6,3 km/h (2 Bft) 95,74 %
07.04.2017 21:46 11,9 C 11,7 C 10,0 C 78 % 0 lf 1024,2 hPa 0,0 l/m 0 min 0 min 0 W/m 8,4 km/h (2 Bft) 93,48 %
07.04.2017 21:48 11,9 C 11,7 C 10,0 C 78 % 0 lf 1024,2 hPa 0,0 l/m 0 min 0 min 0 W/m 6,3 km/h (2 Bft) 93,62 %
07.04.2017 21:50 11,9 C 11,7 C 10,0 C 78 % 0 lf 1024,2 hPa 0,0 l/m 0 min 0 min 0 W/m 6,3 km/h (2 Bft) 97,87 %
07.04.2017 21:52 11,9 C 11,7 C 10,0 C 78 % 0 lf 1024,3 hPa 0,0 l/m 0 min 0 min 0 W/m 6,3 km/h (2 Bft) 97,87 %
07.04.2017 21:54 11,9 C 11,7 C 10,0 C 78 % 0 lf 1024,2 hPa 0,0 l/m 0 min 0 min 0 W/m 8,4 km/h (2 Bft) 100,00 %
07.04.2017 21:56 11,8 C 11,7 C 10,0 C 78 % 0 lf 1024,3 hPa 0,0 l/m 0 min 0 min 0 W/m 6,3 km/h (2 Bft) 93,62 %
07.04.2017 21:58 11,8 C 11,7 C 10,0 C 78 % 0 lf 1024,3 hPa 0,0 l/m 0 min 0 min 0 W/m 6,3 km/h (2 Bft) 97,87 %
07.04.2017 22:00 11,8 C 11,7 C 10,0 C 78 % 0 lf 1024,3 hPa 0,0 l/m 0 min 0 min 0 W/m 8,4 km/h (2 Bft) 95,65 %
07.04.2017 22:02 11,8 C 11,7 C 10,0 C 78 % 0 lf 1024,2 hPa 0,0 l/m 0 min 0 min 0 W/m 8,4 km/h (2 Bft) 97,87 %
07.04.2017 22:04 11,8 C 11,7 C 10,0 C 78 % 0 lf 1024,3 hPa 0,0 l/m 0 min 0 min 0 W/m 6,3 km/h (2 Bft) 100,00 %
07.04.2017 22:06 11,8 C 11,7 C 10,0 C 78 % 0 lf 1024,3 hPa 0,0 l/m 0 min 0 min 0 W/m 4,2 km/h (1 Bft) 97,87 %
07.04.2017 22:08 11,7 C 11,7 C 10,0 C 78 % 0 lf 1024,3 hPa 0,0 l/m 0 min 0 min 0 W/m 6,3 km/h (2 Bft) 100,00 %
07.04.2017 22:10 11,7 C 11,7 C 10,0 C 79 % 0 lf 1024,3 hPa 0,0 l/m 0 min 0 min 0 W/m 4,2 km/h (1 Bft) 100,00 %
07.04.2017 22:12 11,7 C 11,7 C 10,0 C 79 % 0 lf 1024,3 hPa 0,0 l/m 0 min 0 min 0 W/m 6,3 km/h (2 Bft) 95,74 %
07.04.2017 22:14 11,7 C 11,7 C 10,0 C 79 % 0 lf 1024,4 hPa 0,0 l/m 0 min 0 min 0 W/m 6,3 km/h (2 Bft) 97,87 %
07.04.2017 22:16 11,7 C 11,7 C 10,0 C 79 % 0 lf 1024,3 hPa 0,0 l/m 0 min 0 min 0 W/m 4,2 km/h (1 Bft) 100,00 %
07.04.2017 22:18 11,7 C 11,7 C 10,0 C 79 % 0 lf 1024,4 hPa 0,0 l/m 0 min 0 min 0 W/m 4,2 km/h (1 Bft) 93,62 %
07.04.2017 22:20 11,7 C 11,7 C 10,0 C 79 % 0 lf 1024,3 hPa 0,0 l/m 0 min 0 min 0 W/m 2,1 km/h (1 Bft) 100,00 %
07.04.2017 22:22 11,7 C 11,1 C 10,0 C 79 % 0 lf 1024,4 hPa 0,0 l/m 0 min 0 min 0 W/m 4,2 km/h (1 Bft) 100,00 %
07.04.2017 22:24 11,7 C 11,1 C 10,0 C 79 % 0 lf 1024,3 hPa 0,0 l/m 0 min 0 min 0 W/m 4,2 km/h (1 Bft) 97,87 %
07.04.2017 22:26 11,6 C 11,1 C 9,4 C 79 % 0 lf 1024,3 hPa 0,0 l/m 0 min 0 min 0 W/m 4,2 km/h (1 Bft) 95,74 %
07.04.2017 22:28 11,6 C 11,1 C 9,4 C 79 % 0 lf 1024,3 hPa 0,0 l/m 0 min 0 min 0 W/m 4,2 km/h (1 Bft) 97,87 %
07.04.2017 22:30 11,6 C 11,1 C 9,4 C 79 % 0 lf 1024,3 hPa 0,0 l/m 0 min 0 min 0 W/m 4,2 km/h (1 Bft) 97,87 %
07.04.2017 22:32 11,6 C 11,1 C 9,4 C 79 % 0 lf 1024,4 hPa 0,0 l/m 0 min 0 min 0 W/m 4,2 km/h (1 Bft) 97,87 %
07.04.2017 22:34 11,6 C 11,1 C 9,4 C 79 % 0 lf 1024,4 hPa 0,0 l/m 0 min 0 min 0 W/m 4,2 km/h (1 Bft) 97,83 %
07.04.2017 22:36 11,6 C 11,1 C 9,4 C 79 % 0 lf 1024,4 hPa 0,0 l/m 0 min 0 min 0 W/m 6,3 km/h (2 Bft) 89,36 %
07.04.2017 22:38 11,6 C 11,1 C 9,4 C 79 % 0 lf 1024,4 hPa 0,0 l/m 0 min 0 min 0 W/m 4,2 km/h (1 Bft) 97,87 %
07.04.2017 22:40 11,6 C 11,1 C 9,4 C 79 % 0 lf 1024,3 hPa 0,0 l/m 0 min 0 min 0 W/m 6,3 km/h (2 Bft) 93,62 %
07.04.2017 22:45 11,5 C 11,1 C 9,4 C 79 % 0 lf 1024,3 hPa 0,0 l/m 0 min 0 min 0 W/m 4,2 km/h (1 Bft) 100,00 %
07.04.2017 22:50 11,5 C 11,1 C 9,4 C 79 % 0 lf 1024,4 hPa 0,0 l/m 0 min 0 min 0 W/m 6,3 km/h (2 Bft) 96,49 %
07.04.2017 22:52 11,4 C 11,1 C 9,4 C 80 % 0 lf 1024,3 hPa 0,0 l/m 0 min 0 min 0 W/m 4,2 km/h (1 Bft) 92,00 %
07.04.2017 22:54 11,4 C 11,1 C 9,4 C 80 % 0 lf 1024,3 hPa 0,0 l/m 0 min 0 min 0 W/m 6,3 km/h (2 Bft) 93,33 %
07.04.2017 22:56 11,4 C 11,1 C 9,4 C 80 % 0 lf 1024,3 hPa 0,0 l/m 0 min 0 min 0 W/m 2,1 km/h (1 Bft) 93,62 %
07.04.2017 22:58 11,4 C 11,1 C 9,4 C 80 % 0 lf 1024,3 hPa 0,0 l/m 0 min 0 min 0 W/m 6,3 km/h (2 Bft) 91,49 %
07.04.2017 23:00 11,4 C 11,1 C 9,4 C 80 % 0 lf 1024,3 hPa 0,0 l/m 0 min 0 min 0 W/m 4,2 km/h (1 Bft) 93,62 %
07.04.2017 23:02 11,4 C 11,1 C 9,4 C 80 % 0 lf 1024,3 hPa 0,0 l/m 0 min 0 min 0 W/m 6,3 km/h (2 Bft) 91,49 %
07.04.2017 23:04 11,4 C 11,1 C 9,4 C 80 % 0 lf 1024,3 hPa 0,0 l/m 0 min 0 min 0 W/m 2,1 km/h (1 Bft) 91,49 %
07.04.2017 23:06 11,4 C 11,1 C 9,4 C 80 % 0 lf 1024,2 hPa 0,0 l/m 0 min 0 min 0 W/m 6,3 km/h (2 Bft) 91,30 %
07.04.2017 23:08 11,4 C 11,1 C 9,4 C 80 % 0 lf 1024,2 hPa 0,0 l/m 0 min 0 min 0 W/m 4,2 km/h (1 Bft) 89,36 %
07.04.2017 23:10 11,4 C 11,1 C 9,4 C 80 % 0 lf 1024,2 hPa 0,0 l/m 0 min 0 min 0 W/m 4,2 km/h (1 Bft) 91,49 %
07.04.2017 23:12 11,3 C 11,1 C 9,4 C 80 % 0 lf 1024,3 hPa 0,0 l/m 0 min 0 min 0 W/m 4,2 km/h (1 Bft) 91,49 %
07.04.2017 23:14 11,3 C 11,1 C 9,4 C 80 % 0 lf 1024,2 hPa 0,0 l/m 0 min 0 min 0 W/m 2,1 km/h (1 Bft) 87,23 %
07.04.2017 23:16 11,3 C 11,1 C 9,4 C 80 % 0 lf 1024,2 hPa 0,0 l/m 0 min 0 min 0 W/m 2,1 km/h (1 Bft) 93,62 %
07.04.2017 23:18 11,3 C 11,1 C 9,4 C 80 % 0 lf 1024,2 hPa 0,0 l/m 0 min 0 min 0 W/m 2,1 km/h (1 Bft) 93,48 %
07.04.2017 23:20 11,3 C 11,1 C 9,4 C 80 % 0 lf 1024,2 hPa 0,0 l/m 0 min 0 min 0 W/m 8,4 km/h (2 Bft) 91,49 %
07.04.2017 23:22 11,3 C 11,1 C 9,4 C 80 % 0 lf 1024,2 hPa 0,0 l/m 0 min 0 min 0 W/m 2,1 km/h (1 Bft) 91,49 %
07.04.2017 23:24 11,3 C 11,1 C 9,4 C 80 % 0 lf 1024,2 hPa 0,0 l/m 0 min 0 min 0 W/m 4,2 km/h (1 Bft) 91,49 %
07.04.2017 23:26 11,3 C 11,1 C 9,4 C 81 % 0 lf 1024,2 hPa 0,0 l/m 0 min 0 min 0 W/m 6,3 km/h (2 Bft) 89,36 %
07.04.2017 23:28 11,3 C 11,1 C 9,4 C 81 % 0 lf 1024,2 hPa 0,0 l/m 0 min 0 min 0 W/m 4,2 km/h (1 Bft) 91,49 %
07.04.2017 23:30 11,3 C 11,1 C 9,4 C 81 % 0 lf 1024,2 hPa 0,0 l/m 0 min 0 min 0 W/m 6,3 km/h (2 Bft) 93,48 %
07.04.2017 23:32 11,3 C 11,1 C 9,4 C 81 % 0 lf 1024,1 hPa 0,0 l/m 0 min 0 min 0 W/m 4,2 km/h (1 Bft) 93,62 %
07.04.2017 23:34 11,2 C 11,1 C 9,4 C 81 % 0 lf 1024,2 hPa 0,0 l/m 0 min 0 min 0 W/m 6,3 km/h (2 Bft) 91,49 %
07.04.2017 23:36 11,2 C 11,1 C 9,4 C 81 % 0 lf 1024,1 hPa 0,0 l/m 0 min 0 min 0 W/m 10,5 km/h (2 Bft) 91,49 %
07.04.2017 23:38 11,2 C 11,1 C 9,4 C 81 % 0 lf 1024,1 hPa 0,0 l/m 0 min 0 min 0 W/m 6,3 km/h (2 Bft) 93,62 %
07.04.2017 23:40 11,2 C 11,1 C 9,4 C 81 % 0 lf 1024,2 hPa 0,0 l/m 0 min 0 min 0 W/m 6,3 km/h (2 Bft) 95,74 %
07.04.2017 23:42 11,2 C 11,1 C 9,4 C 81 % 0 lf 1024,2 hPa 0,0 l/m 0 min 0 min 0 W/m 6,3 km/h (2 Bft) 100,00 %
07.04.2017 23:44 11,2 C 11,1 C 9,4 C 81 % 0 lf 1024,2 hPa 0,0 l/m 0 min 0 min 0 W/m 10,5 km/h (2 Bft) 97,87 %
07.04.2017 23:46 11,2 C 11,1 C 9,4 C 81 % 0 lf 1024,2 hPa 0,0 l/m 0 min 0 min 0 W/m 8,4 km/h (2 Bft) 93,62 %
07.04.2017 23:48 11,2 C 11,1 C 9,4 C 81 % 0 lf 1024,2 hPa 0,0 l/m 0 min 0 min 0 W/m 6,3 km/h (2 Bft) 97,87 %
07.04.2017 23:50 11,2 C 11,1 C 9,4 C 81 % 0 lf 1024,1 hPa 0,0 l/m 0 min 0 min 0 W/m 4,2 km/h (1 Bft) 100,00 %
07.04.2017 23:52 11,2 C 11,1 C 9,4 C 81 % 0 lf 1024,1 hPa 0,0 l/m 0 min 0 min 0 W/m 8,4 km/h (2 Bft) 100,00 %
07.04.2017 23:54 11,2 C 11,1 C 9,4 C 81 % 0 lf 1024,1 hPa 0,0 l/m 0 min 0 min 0 W/m 8,4 km/h (2 Bft) 100,00 %
07.04.2017 23:56 11,2 C 11,1 C 9,4 C 82 % 0 lf 1024,1 hPa 0,0 l/m 0 min 0 min 0 W/m 6,3 km/h (2 Bft) 95,74 %
07.04.2017 23:58 11,1 C 11,1 C 9,4 C 82 % 0 lf 1024,1 hPa 0,0 l/m 0 min 0 min 0 W/m 8,4 km/h (2 Bft) 97,87 %
_ Min-Zeit 03:52 03:14 00:54 17:28 00:00 17:22 - - - - 00:38 19:46
Minimum _ 4,9 C 3,9 C 2,8 C 67 % 0 lf 1023,2 hPa - - - - 0,0 km/h (0 Bft) 82,98 %
_ Max-Zeit 14:06 12:16 12:14 06:10 00:00 00:00 00:00 14:06 00:00 13:08 10:02 00:48
Maximum _ 15,9 C 17,8 C 16,1 C 92 % 0 lf 1027,1 hPa 0,0 l/m 5 min 0 min 683 W/m 20,9 km/h
W-SW (4 Bft)
100,00 %
Durchschnitt _ 9,7 C 10,5 C 9,3 C 80 % 0 lf 1024,6 hPa #0,0 l/m #7:55 h #0 min. 296 W/m 8,5 km/h (2 Bft) 96,02 %
© 2017 W. Hausmann